AE5VO-5 Weather Reports


Display with metric or nautical units.
time (UTC)temp
F
wind
direction
speed
MPH
gust
MPH
rain 1hr
in
rain 24hr
in
rain mn
in
humidity
%
barometer
mb
20180221052834 33 342 3.0 11.0 0.17 2.02 2.02 94 1024.4
20180221052721 33 293 4.0 11.0 0.17 2.02 2.02 94 1024.6
20180221052628 33 327 4.0 11.0 0.17 2.01 2.01 94 1024.4
20180221052519 33 298 5.0 11.0 0.18 2.01 2.01 94 1024.0
20180221052426 33 340 4.0 11.0 0.18 2.01 2.01 94 1023.7
20180221052333 33 272 3.0 11.0 0.19 2.01 2.01 94 1023.5
20180221052220 33 360 2.0 6.0 0.19 2.01 2.01 94 1023.3
20180221052127 33 302 1.0 9.0 0.20 2.01 2.01 94 1023.2
20180221052019 33 302 1.0 9.0 0.19 2.00 2.00 94 1023.1
20180221051927 33 301 1.0 9.0 0.19 2.00 2.00 94 1023.0
20180221051834 33 298 1.0 9.0 0.20 2.00 2.00 94 1023.2
20180221051721 33 344 1.0 9.0 0.20 2.00 2.00 94 1023.4
20180221051628 33 344 2.0 9.0 0.21 2.00 2.00 94 1023.6
20180221051535 33 344 2.0 9.0 0.21 2.00 2.00 94 1023.6
20180221051426 33 360 3.0 9.0 0.20 1.99 1.99 94 1023.6
20180221051333 33 326 4.0 9.0 0.21 1.99 1.99 94 1023.8
20180221051220 33 332 3.0 8.0 0.21 1.99 1.99 94 1023.9
20180221051127 33 300 3.0 8.0 0.21 1.99 1.99 94 1023.8
20180221051035 33 5 3.0 8.0 0.22 1.99 1.99 94 1023.8
20180221050926 32 340 2.0 8.0 0.21 1.98 1.98 94 1023.6
20180221050833 32 9 1.0 6.0 0.21 1.98 1.98 94 1023.2
20180221050720 32 299 1.0 6.0 0.22 1.98 1.98 94 1023.0
20180221050627 32 349 1.0 6.0 0.22 1.98 1.98 94 1022.7
20180221050534 32 28 3.0 6.0 0.23 1.98 1.98 94 1022.5
20180221050420 32 38 3.0 6.0 0.23 1.98 1.98 94 1022.4
20180221050331 32 36 3.0 6.0 0.22 1.97 1.97 94 1022.3
20180221050218 32 12 2.0 6.0 0.22 1.97 1.97 94 1022.4
20180221050125 32 57 3.0 10.0 0.23 1.97 1.97 94 1022.3
20180221050043 32 57 4.0 10.0 0.23 1.97 1.97 94 1022.1
20180221045917 32 27 4.0 14.0 0.23 1.96 1.96 94 1022.1
20180221045828 32 5 3.0 14.0 0.23 1.96 1.96 94 1022.1
20180221045735 32 36 1.0 14.0 0.23 1.96 1.96 94 1022.1
20180221045622 32 11 1.0 14.0 0.22 1.95 1.95 94 1022.0
20180221045530 32 15 2.0 14.0 0.23 1.95 1.95 94 1022.0
20180221045436 32 11 3.0 14.0 0.23 1.95 1.95 94 1022.0
20180221045323 32 5 4.0 14.0 0.22 1.94 1.94 94 1021.8
20180221045234 32 76 4.0 14.0 0.22 1.94 1.94 94 1021.6
20180221045121 32 355 5.0 14.0 0.22 1.94 1.94 94 1021.5
20180221045029 32 61 4.0 14.0 0.22 1.93 1.93 94 1021.5
20180221044936 32 69 4.0 13.0 0.22 1.93 1.93 94 1021.6
20180221044823 32 35 4.0 13.0 0.22 1.93 1.93 94 1021.7
20180221044734 32 71 6.0 13.0 0.21 1.92 1.92 94 1021.7
20180221044621 32 62 5.0 12.0 0.21 1.92 1.92 94 1021.6
20180221044528 32 105 4.0 14.0 0.21 1.92 1.92 94 1021.7
20180221044435 33 53 4.0 14.0 0.20 1.91 1.91 94 1021.8
20180221044321 33 41 3.0 14.0 0.20 1.91 1.91 94 1022.0
20180221044228 33 12 3.0 14.0 0.21 1.91 1.91 94 1022.1
20180221044119 33 24 2.0 14.0 0.20 1.90 1.90 94 1022.2
20180221044024 33 360 2.0 14.0 0.20 1.90 1.90 94 1022.2
20180221043932 32 25 2.0 14.0 0.19 1.89 1.89 94 1022.3
20180221043818 32 34 4.0 14.0 0.19 1.89 1.89 94 1022.1
20180221043725 32 123 4.0 14.0 0.19 1.89 1.89 94 1022.0
20180221043636 32 13 4.0 14.0 0.18 1.88 1.88 94 1022.2
20180221043523 33 41 4.0 9.0 0.18 1.88 1.88 94 1022.1
20180221043430 33 19 3.0 9.0 0.17 1.87 1.87 94 1022.1
20180221043318 33 49 4.0 9.0 0.17 1.87 1.87 94 1022.2
20180221043225 33 35 3.0 9.0 0.17 1.87 1.87 94 1022.4
20180221043129 33 101 3.0 9.0 0.17 1.87 1.87 94 1022.5
20180221043020 33 16 3.0 10.0 0.16 1.86 1.86 94 1022.6
20180221042928 33 44 3.0 10.0 0.15 1.85 1.85 94 1022.5
20180221042835 33 331 3.0 10.0 0.16 1.85 1.85 94 1022.7
20180221042723 33 9 3.0 10.0 0.15 1.84 1.84 94 1022.8
20180221042629 33 35 3.0 10.0 0.15 1.84 1.84 94 1022.8
20180221042520 33 33 3.0 10.0 0.14 1.83 1.83 94 1022.7
20180221042427 33 315 3.0 10.0 0.14 1.83 1.83 94 1022.7
20180221042334 33 78 4.0 10.0 0.13 1.82 1.82 94 1022.8
20180221042221 33 104 4.0 10.0 0.13 1.82 1.82 94 1022.9
20180221042128 33 92 3.0 8.0 0.12 1.81 1.81 94 1023.0
20180221042020 33 79 3.0 8.0 0.12 1.81 1.81 94 1023.1
20180221041927 33 35 3.0 8.0 0.11 1.80 1.80 94 1023.1
20180221041834 33 128 2.0 8.0 0.11 1.80 1.80 94 1023.2
20180221041721 33 5 2.0 9.0 0.11 1.80 1.80 94 1023.3
20180221041628 33 32 3.0 9.0 0.10 1.79 1.79 94 1023.2
20180221041535 33 24 2.0 9.0 0.10 1.79 1.79 94 1023.2
20180221041426 33 360 1.0 9.0 0.10 1.79 1.79 94 1023.1
20180221041333 33 76 2.0 9.0 0.09 1.78 1.78 94 1023.1
20180221041220 33 292 4.0 9.0 0.09 1.78 1.78 93 1023.0
20180221041127 33 329 4.0 10.0 0.08 1.77 1.77 93 1023.0
20180221041034 33 15 4.0 11.0 0.08 1.77 1.77 93 1023.0
20180221040927 33 66 4.0 11.0 0.08 1.77 1.77 93 1022.9
20180221040833 33 68 3.0 11.0 0.07 1.76 1.76 94 1022.9
20180221040720 33 40 3.0 11.0 0.07 1.76 1.76 94 1022.9
20180221040627 33 65 3.0 11.0 0.07 1.76 1.76 94 1022.8
20180221040534 33 355 4.0 11.0 0.06 1.75 1.75 94 1022.8
20180221040421 33 337 4.0 11.0 0.06 1.75 1.75 94 1022.8
20180221040332 33 326 5.0 11.0 0.06 1.75 1.75 94 1022.8
20180221040219 33 316 4.0 11.0 0.05 1.74 1.74 93 1022.9
20180221040127 33 355 4.0 10.0 0.05 1.74 1.74 94 1022.9
20180221040045 33 5 4.0 10.0 0.05 1.74 1.74 94 1022.8
20180221035919 34 342 4.0 9.0 0.04 1.73 1.73 94 1022.9
20180221035830 34 330 4.0 9.0 0.04 1.73 1.73 94 1022.8
20180221035717 34 61 3.0 11.0 0.04 1.73 1.73 94 1022.8
20180221035624 34 355 3.0 11.0 0.04 1.73 1.73 94 1022.9
20180221035531 34 337 2.0 11.0 0.03 1.72 1.72 94 1023.1
20180221035418 34 330 2.0 11.0 0.03 1.72 1.72 94 1023.1
20180221035325 34 272 2.0 11.0 0.03 1.72 1.72 94 1023.3
20180221035236 34 5 2.0 11.0 0.03 1.72 1.72 94 1023.4
20180221035123 34 332 2.0 11.0 0.03 1.72 1.72 94 1023.3
20180221035030 34 336 3.0 11.0 0.02 1.71 1.71 94 1023.2
20180221034919 34 261 3.0 11.0 0.02 1.71 1.71 94 1023.0
20180221034825 34 28 2.0 9.0 0.02 1.71 1.71 94 1023.0
20180221034736 34 336 2.0 9.0 0.02 1.71 1.71 94 1022.9
20180221034623 34 311 2.0 9.0 0.02 1.71 1.71 94 1022.9
20180221034530 34 25 3.0 9.0 0.02 1.71 1.71 94 1022.8
20180221034417 34 324 4.0 9.0 0.02 1.71 1.71 94 1022.8
20180221034324 34 34 3.0 9.0 0.02 1.71 1.71 94 1022.8
20180221034231 34 344 2.0 9.0 0.01 1.70 1.70 94 1022.8
20180221034122 34 59 2.0 9.0 0.01 1.70 1.70 94 1022.8
20180221034029 34 322 3.0 9.0 0.01 1.70 1.70 94 1022.8
20180221033917 34 19 4.0 9.0 0.01 1.70 1.70 94 1022.8
20180221033824 34 327 4.0 9.0 0.01 1.70 1.70 94 1022.8
20180221033731 34 333 3.0 10.0 0.01 1.70 1.70 94 1022.9
20180221033622 34 5 3.0 10.0 0.01 1.70 1.70 94 1022.9
20180221033529 34 309 4.0 10.0 0.01 1.70 1.70 94 1022.9
20180221033436 34 350 4.0 10.0 0.01 1.70 1.70 94 1022.9
20180221033323 34 335 4.0 10.0 0.01 1.70 1.70 94 1022.9
20180221033230 34 323 3.0 10.0 0.01 1.70 1.70 94 1023.0
20180221033121 34 314 3.0 10.0 0.01 1.70 1.70 94 1022.9
20180221033028 34 9 4.0 10.0 0.01 1.70 1.70 94 1022.9
20180221032937 34 346 4.0 10.0 0.01 1.70 1.70 94 1022.7
20180221032823 34 360 4.0 10.0 0.00 1.69 1.69 94 1022.9
20180221032730 35 360 3.0 10.0 0.00 1.69 1.69 94 1022.7
20180221032617 35 311 4.0 10.0 0.00 1.69 1.69 94 1022.7
20180221032528 35 300 5.0 10.0 0.00 1.69 1.69 94 1022.7
20180221032435 35 346 5.0 10.0 0.00 1.69 1.69 94 1022.6
20180221032322 35 294 4.0 9.0 0.01 1.69 1.69 94 1022.5
20180221032229 35 65 3.0 9.0 0.01 1.69 1.69 94 1022.5
20180221032136 35 298 4.0 9.0 0.01 1.69 1.69 94 1022.4
20180221032028 35 281 4.0 9.0 0.01 1.69 1.69 94 1022.4
20180221031936 35 58 3.0 9.0 0.01 1.69 1.69 94 1022.4
20180221031823 35 64 3.0 9.0 0.01 1.69 1.69 94 1022.3
20180221031731 35 335 2.0 9.0 0.01 1.69 1.69 94 1022.4
20180221031636 35 360 2.0 5.0 0.01 1.69 1.69 94 1022.4
20180221031523 35 15 1.0 9.0 0.01 1.69 1.69 94 1022.4
20180221031434 35 360 1.0 9.0 0.01 1.69 1.69 94 1022.4
20180221031322 35 360 2.0 9.0 0.01 1.69 1.69 94 1022.3
20180221031229 35 325 2.0 9.0 0.01 1.69 1.69 94 1022.3
20180221031136 35 281 2.0 9.0 0.01 1.69 1.69 94 1022.3
20180221031023 35 338 2.0 9.0 0.01 1.69 1.69 94 1022.3
20180221030936 35 340 2.0 9.0 0.01 1.69 1.69 94 1022.2
20180221030822 35 342 3.0 10.0 0.01 1.69 1.69 94 1022.1
20180221030729 35 349 3.0 10.0 0.01 1.69 1.69 94 1022.0
20180221030636 35 344 3.0 10.0 0.01 1.69 1.69 94 1022.0
20180221030524 35 332 2.0 10.0 0.01 1.69 1.69 94 1022.1
20180221030432 35 360 2.0 10.0 0.01 1.69 1.69 94 1022.1
20180221030322 35 355 3.0 10.0 0.01 1.69 1.69 94 1022.1
20180221030229 35 11 4.0 10.0 0.02 1.69 1.69 94 1022.2
20180221030136 35 318 3.0 10.0 0.02 1.69 1.69 94 1022.3
20180221030034 35 355 4.0 10.0 0.02 1.69 1.69 94 1022.4
20180221025929 35 334 4.0 10.0 0.02 1.69 1.69 94 1022.2
20180221025819 35 315 3.0 8.0 0.02 1.69 1.69 94 1022.0
20180221025726 35 336 2.0 5.0 0.02 1.69 1.69 94 1021.7
20180221025633 35 307 1.0 5.0 0.03 1.69 1.69 94 1021.6
20180221025520 35 348 1.0 4.0 0.03 1.69 1.69 94 1021.4
20180221025427 35 37 1.0 4.0 0.03 1.69 1.69 94 1021.4
20180221025318 35 37 2.0 4.0 0.03 1.69 1.69 94 1021.3
20180221025225 35 37 2.0 4.0 0.04 1.69 1.69 94 1021.4
20180221025132 35 355 2.0 4.0 0.04 1.69 1.69 94 1021.4
20180221025019 35 294 2.0 4.0 0.04 1.69 1.69 94 1021.3
20180221024927 35 335 1.0 3.0 0.04 1.69 1.69 94 1021.3
20180221024835 35 335 1.0 3.0 0.04 1.69 1.69 94 1021.3
20180221024726 35 355 1.0 3.0 0.05 1.69 1.69 94 1021.2
20180221024633 35 355 1.0 3.0 0.05 1.69 1.69 94 1021.2
20180221024521 35 355 1.0 5.0 0.05 1.69 1.69 94 1021.2
20180221024427 35 355 1.0 6.0 0.05 1.69 1.69 94 1021.2
20180221024334 35 332 1.0 6.0 0.06 1.69 1.69 94 1021.1
20180221024225 35 335 1.0 6.0 0.06 1.69 1.69 94 1021.2
20180221024132 35 330 1.0 6.0 0.06 1.69 1.69 94 1021.1
20180221024019 35 331 1.0 6.0 0.06 1.69 1.69 94 1021.1
20180221023927 35 331 1.0 6.0 0.06 1.69 1.69 94 1021.1
20180221023834 35 331 1.0 6.0 0.06 1.69 1.69 94 1020.9
20180221023722 35 355 2.0 6.0 0.07 1.69 1.69 94 1021.0
20180221023633 35 335 3.0 6.0 0.07 1.69 1.69 94 1020.9
20180221023520 35 10 2.0 6.0 0.07 1.69 1.69 94 1020.8
20180221023427 35 333 2.0 6.0 0.07 1.69 1.69 94 1020.8
20180221023334 35 311 2.0 6.0 0.07 1.69 1.69 94 1020.8
20180221023221 35 299 2.0 5.0 0.07 1.69 1.69 94 1020.8
20180221023133 35 338 2.0 5.0 0.08 1.69 1.69 94 1020.7
20180221023019 35 319 2.0 5.0 0.08 1.69 1.69 94 1020.6
20180221022927 35 360 1.0 5.0 0.08 1.69 1.69 94 1020.5
20180221022834 35 326 2.0 5.0 0.08 1.69 1.69 94 1020.5
20180221022721 35 290 2.0 5.0 0.08 1.69 1.69 94 1020.4
20180221022628 35 11 1.0 7.0 0.08 1.69 1.69 94 1020.4
20180221022519 35 327 1.0 7.0 0.09 1.69 1.69 94 1020.5
20180221022426 35 321 1.0 7.0 0.08 1.68 1.68 94 1020.5
20180221022333 35 321 2.0 7.0 0.08 1.68 1.68 94 1020.4
20180221022220 35 348 1.0 7.0 0.08 1.68 1.68 94 1020.2
20180221022127 35 5 1.0 9.0 0.09 1.68 1.68 94 1020.1
20180221022019 35 5 2.0 9.0 0.09 1.68 1.68 94 1019.8
20180221021927 35 355 3.0 10.0 0.09 1.68 1.68 93 1019.8
20180221021834 35 57 3.0 10.0 0.09 1.68 1.68 93 1019.7
20180221021721 35 76 2.0 10.0 0.10 1.68 1.68 93 1019.7
20180221021628 35 360 2.0 10.0 0.10 1.68 1.68 94 1019.7
20180221021519 35 87 3.0 10.0 0.10 1.68 1.68 94 1019.7
20180221021427 35 19 4.0 13.0 0.11 1.68 1.68 94 1019.8
20180221021334 35 5 4.0 13.0 0.11 1.68 1.68 94 1019.8
20180221021221 35 355 4.0 13.0 0.12 1.68 1.68 94 1019.8
20180221021128 35 23 3.0 13.0 0.12 1.68 1.68 94 1019.9
20180221021035 35 33 3.0 13.0 0.13 1.68 1.68 94 1020.0
20180221020927 35 11 3.0 13.0 0.13 1.68 1.68 93 1020.1
20180221020834 35 62 4.0 13.0 0.14 1.68 1.68 93 1020.2
20180221020721 35 9 4.0 13.0 0.14 1.68 1.68 94 1020.2
20180221020628 35 57 4.0 13.0 0.14 1.68 1.68 94 1020.1
20180221020535 35 32 2.0 9.0 0.15 1.68 1.68 93 1020.1
20180221020426 35 65 2.0 11.0 0.15 1.68 1.68 93 1020.1
20180221020333 35 355 3.0 11.0 0.15 1.68 1.68 93 1020.1
20180221020220 35 11 3.0 11.0 0.15 1.67 1.67 93 1020.0
20180221020127 35 60 3.0 11.0 0.15 1.67 1.67 93 1020.1
20180221020045 35 355 2.0 11.0 0.15 1.67 1.67 93 1020.2
20180221015919 35 5 3.0 11.0 0.16 1.67 1.67 93 1020.1
20180221015830 35 5 4.0 11.0 0.16 1.67 1.67 93 1019.9
20180221015717 35 360 5.0 11.0 0.15 1.66 1.66 93 1019.9
20180221015624 35 347 3.0 11.0 0.15 1.66 1.66 93 1020.1
20180221015531 35 71 3.0 10.0 0.16 1.66 1.66 93 1020.2
20180221015418 35 52 3.0 10.0 0.16 1.66 1.66 93 1020.3
20180221015329 35 25 2.0 10.0 0.17 1.66 1.66 93 1020.3
20180221015236 35 355 2.0 10.0 0.16 1.65 1.65 93 1020.4
20180221015124 35 5 1.0 8.0 0.17 1.65 1.65 93 1020.4
20180221015031 35 5 2.0 8.0 0.17 1.65 1.65 93 1020.3
20180221014920 35 17 2.0 8.0 0.18 1.65 1.65 93 1020.3
20180221014826 35 5 2.0 8.0 0.17 1.64 1.64 93 1020.3
20180221014717 35 42 3.0 7.0 0.18 1.64 1.64 93 1020.1
20180221014624 35 48 3.0 8.0 0.18 1.64 1.64 93 1020.0
20180221014532 35 86 2.0 8.0 0.18 1.64 1.64 93 1020.0
20180221014418 35 53 2.0 9.0 0.18 1.63 1.63 93 1019.9
20180221014325 35 319 3.0 9.0 0.18 1.63 1.63 93 1019.8
20180221014236 35 223 3.0 9.0 0.18 1.63 1.63 93 1019.7
20180221014123 35 21 3.0 9.0 0.19 1.63 1.63 93 1019.8
20180221014031 35 72 3.0 9.0 0.19 1.63 1.63 93 1019.8
20180221013919 35 10 3.0 9.0 0.20 1.63 1.63 93 1019.8
20180221013825 35 65 2.0 9.0 0.21 1.63 1.63 93 1019.8
20180221013732 35 5 3.0 9.0 0.20 1.62 1.62 93 1019.8
20180221013623 35 51 3.0 9.0 0.21 1.62 1.62 93 1019.8
20180221013530 35 92 3.0 8.0 0.21 1.62 1.62 93 1019.8
20180221013417 35 15 3.0 8.0 0.22 1.62 1.62 93 1019.8
20180221013324 35 26 3.0 8.0 0.22 1.62 1.62 93 1019.8
20180221013231 35 236 3.0 8.0 0.22 1.61 1.61 93 1019.8
20180221013122 35 19 2.0 6.0 0.22 1.61 1.61 93 1019.8
20180221013029 35 22 1.0 9.0 0.23 1.61 1.61 93 1019.9
20180221012917 35 355 2.0 9.0 0.23 1.61 1.61 93 1019.9
20180221012824 35 19 2.0 9.0 0.24 1.61 1.61 93 1020.1
20180221012731 35 73 2.0 9.0 0.24 1.61 1.61 93 1020.1
20180221012622 35 28 2.0 9.0 0.24 1.61 1.61 93 1020.0
20180221012530 35 45 3.0 9.0 0.24 1.60 1.60 93 1019.9
20180221012417 35 291 3.0 9.0 0.24 1.60 1.60 93 1019.8
20180221012324 35 90 3.0 9.0 0.25 1.60 1.60 93 1019.6
20180221012231 35 120 3.0 10.0 0.25 1.60 1.60 93 1019.5
20180221012118 35 24 2.0 10.0 0.24 1.59 1.59 93 1019.5
20180221012029 35 57 2.0 10.0 0.25 1.59 1.59 93 1019.7
20180221011918 35 32 3.0 10.0 0.25 1.59 1.59 93 1019.8
20180221011825 35 360 3.0 10.0 0.24 1.58 1.58 93 1019.9
20180221011732 35 67 3.0 10.0 0.25 1.58 1.58 93 1020.0
20180221011619 35 19 4.0 10.0 0.25 1.58 1.58 93 1020.1
20180221011531 35 94 4.0 10.0 0.25 1.57 1.57 93 1020.1
20180221011418 36 38 4.0 12.0 0.26 1.57 1.57 93 1020.1
20180221011325 36 44 4.0 12.0 0.25 1.56 1.56 93 1020.0
20180221011233 36 355 3.0 12.0 0.26 1.56 1.56 93 1019.9
20180221011120 36 128 3.0 12.0 0.26 1.56 1.56 93 1019.9
20180221011028 36 111 3.0 12.0 0.26 1.55 1.55 93 1019.9
20180221010920 36 5 3.0 12.0 0.26 1.55 1.55 93 1019.9
20180221010827 36 63 4.0 12.0 0.26 1.54 1.54 93 1019.8
20180221010734 36 69 4.0 12.0 0.26 1.54 1.54 93 1019.8
20180221010621 36 67 5.0 12.0 0.26 1.53 1.53 93 1019.8
20180221010528 36 25 5.0 12.0 0.26 1.53 1.53 93 1019.8
20180221010419 36 328 3.0 8.0 0.26 1.53 1.53 93 1019.8
20180221010326 36 19 3.0 5.0 0.26 1.52 1.52 93 1019.8
20180221010233 36 36 2.0 5.0 0.26 1.52 1.52 93 1019.8
20180221010120 36 57 2.0 5.0 0.27 1.52 1.52 93 1019.8
20180221010038 36 338 1.0 5.0 0.27 1.52 1.52 93 1019.8
20180221005932 36 22 2.0 5.0 0.27 1.51 1.51 93 1019.8
20180221005823 36 32 2.0 5.0 0.28 1.51 1.51 93 1019.9
20180221005730 36 47 3.0 5.0 0.28 1.51 1.51 93 1019.9
20180221005617 36 67 2.0 5.0 0.28 1.50 1.50 93 1020.1
20180221005524 36 63 1.0 5.0 0.29 1.50 1.50 93 1020.1
20180221005432 36 31 1.0 5.0 0.29 1.50 1.50 93 1020.1
20180221005323 36 31 1.0 5.0 0.29 1.49 1.49 93 1020.1
20180221005231 36 31 1.0 5.0 0.28 1.48 1.48 93 1020.0
20180221005118 36 31 0.0 5.0 0.29 1.48 1.48 93 1019.9
20180221005025 36 31 1.0 5.0 0.29 1.47 1.47 93 1019.9
20180221004933 36 31 2.0 5.0 0.30 1.47 1.47 93 1019.9
20180221004825 36 31 2.0 5.0 0.29 1.46 1.46 93 1019.9
20180221004732 36 40 1.0 3.0 0.30 1.46 1.46 93 1019.9
20180221004619 36 53 1.0 3.0 0.31 1.46 1.46 93 1019.9
20180221004526 36 45 1.0 3.0 0.31 1.45 1.45 93 1019.9
20180221004433 36 45 1.0 3.0 0.31 1.45 1.45 93 1019.9
20180221004320 36 44 1.0 3.0 0.32 1.45 1.45 93 1019.8
20180221004231 36 14 1.0 3.0 0.32 1.44 1.44 93 1019.7
20180221004118 36 9 1.0 4.0 0.32 1.44 1.44 93 1019.8
20180221004025 36 360 1.0 4.0 0.32 1.43 1.43 93 1019.8
20180221003933 36 355 2.0 4.0 0.33 1.43 1.43 93 1019.8
20180221003821 36 22 2.0 4.0 0.33 1.42 1.42 93 1019.8
20180221003732 36 14 2.0 4.0 0.33 1.42 1.42 93 1019.8
20180221003619 36 28 2.0 4.0 0.33 1.41 1.41 93 1019.8
20180221003526 36 24 1.0 4.0 0.33 1.40 1.40 93 1019.8
20180221003433 36 327 2.0 4.0 0.33 1.40 1.40 93 1019.8
20180221003320 36 332 2.0 4.0 0.33 1.39 1.39 93 1019.9
20180221003227 36 331 1.0 3.0 0.33 1.39 1.39 93 1019.9
20180221003118 36 325 1.0 3.0 0.32 1.38 1.38 93 1019.8
20180221003025 36 319 1.0 3.0 0.33 1.38 1.38 93 1019.7
20180221002933 36 17 1.0 3.0 0.33 1.38 1.38 93 1019.7
20180221002820 36 10 1.0 3.0 0.33 1.37 1.37 93 1019.8
20180221002727 36 15 1.0 3.0 0.33 1.37 1.37 93 1019.9
20180221002618 36 5 1.0 3.0 0.32 1.36 1.36 93 1020.0
20180221002526 36 5 1.0 3.0 0.33 1.36 1.36 93 1020.1
20180221002433 36 5 1.0 3.0 0.33 1.36 1.36 93 1020.2
20180221002320 36 5 1.0 6.0 0.32 1.35 1.35 93 1020.2
20180221002227 36 5 1.0 6.0 0.32 1.35 1.35 93 1020.2
20180221002119 36 360 1.0 6.0 0.32 1.35 1.35 93 1020.2
20180221002027 36 360 2.0 10.0 0.32 1.34 1.34 93 1020.3
20180221001936 36 301 1.0 10.0 0.32 1.34 1.34 93 1020.3
20180221001823 36 323 2.0 10.0 0.31 1.33 1.33 93 1020.4
20180221001730 36 323 2.0 10.0 0.31 1.33 1.33 93 1020.3
20180221001617 36 9 3.0 10.0 0.30 1.32 1.32 93 1020.4
20180221001528 36 310 3.0 10.0 0.31 1.32 1.32 93 1020.5
20180221001435 36 9 2.0 10.0 0.30 1.31 1.31 93 1020.5
20180221001323 36 328 3.0 10.0 0.30 1.31 1.31 93 1020.4
20180221001230 36 281 4.0 10.0 0.30 1.30 1.30 93 1020.3
20180221001117 37 312 3.0 9.0 0.30 1.30 1.30 93 1020.2
20180221001029 37 14 3.0 9.0 0.29 1.29 1.29 93 1020.1
20180221000936 37 36 2.0 8.0 0.29 1.29 1.29 93 1019.9
20180221000823 37 360 2.0 8.0 0.28 1.28 1.28 93 1019.9
20180221000730 37 355 2.0 8.0 0.29 1.28 1.28 93 1019.8
20180221000618 37 355 2.0 11.0 0.28 1.27 1.27 93 1019.7
20180221000524 37 5 3.0 11.0 0.28 1.27 1.27 93 1019.7
20180221000436 37 310 3.0 11.0 0.28 1.27 1.27 93 1019.5
20180221000323 37 324 1.0 11.0 0.28 1.26 1.26 93 1019.4
20180221000231 37 5 1.0 11.0 0.27 1.25 1.25 93 1019.2
20180221000119 37 322 2.0 11.0 0.27 1.25 1.25 92 1019.2
20180221000037 37 302 3.0 11.0 0.26 1.24 1.24 92 1019.2
20180220235936 37 281 4.0 12.0 0.27 1.24 1.24 93 1019.2
20180220235822 37 299 5.0 12.0 0.26 1.23 1.23 93 1019.1
20180220235729 37 331 4.0 12.0 0.25 1.22 1.22 93 1018.9
20180220235636 37 302 3.0 12.0 0.25 1.22 1.22 93 1018.9
20180220235523 37 360 4.0 12.0 0.24 1.21 1.21 92 1019.0
20180220235429 37 88 4.0 12.0 0.24 1.21 1.21 92 1019.0
20180220235321 37 13 5.0 12.0 0.23 1.20 1.20 92 1019.1
20180220235228 37 5 5.0 12.0 0.23 1.19 1.19 92 1019.2
20180220235135 37 34 4.0 12.0 0.22 1.18 1.18 93 1019.1
20180220235023 37 319 3.0 11.0 0.21 1.17 1.17 93 1019.0
20180220234931 37 63 4.0 11.0 0.21 1.17 1.17 93 1018.8
20180220234822 37 49 4.0 11.0 0.21 1.16 1.16 93 1018.7
20180220234729 37 279 4.0 11.0 0.20 1.15 1.15 93 1018.5
20180220234636 37 360 3.0 11.0 0.20 1.15 1.15 93 1018.5
20180220234523 38 5 2.0 8.0 0.19 1.14 1.14 93 1018.5
20180220234430 38 5 3.0 8.0 0.19 1.13 1.13 93 1018.7
20180220234321 38 248 3.0 8.0 0.18 1.12 1.12 92 1018.9
20180220234229 38 331 3.0 8.0 0.18 1.12 1.12 92 1018.9
20180220234136 38 323 3.0 8.0 0.17 1.11 1.11 92 1018.8
20180220234023 38 5 3.0 8.0 0.16 1.10 1.10 92 1018.7
20180220233931 38 349 3.0 12.0 0.16 1.10 1.10 92 1018.8
20180220233818 38 55 3.0 12.0 0.16 1.09 1.09 92 1019.0
20180220233729 38 360 3.0 12.0 0.15 1.08 1.08 92 1019.0
20180220233636 38 17 3.0 12.0 0.14 1.07 1.07 92 1018.9
20180220233523 38 332 2.0 12.0 0.14 1.07 1.07 92 1018.7
20180220233430 38 327 2.0 12.0 0.14 1.07 1.07 92 1018.5
20180220233317 38 355 3.0 12.0 0.14 1.06 1.06 92 1018.4
20180220233228 38 337 4.0 12.0 0.14 1.06 1.06 92 1018.3
20180220233135 38 44 4.0 12.0 0.14 1.06 1.06 92 1018.2
20180220233022 38 360 2.0 12.0 0.13 1.05 1.05 92 1018.3
20180220232930 38 350 3.0 12.0 0.13 1.05 1.05 92 1018.3
20180220232817 38 345 4.0 12.0 0.12 1.04 1.04 92 1018.4
20180220232724 38 81 4.0 12.0 0.13 1.04 1.04 92 1018.5
20180220232635 38 5 3.0 8.0 0.12 1.03 1.03 92 1018.6
20180220232522 39 360 2.0 9.0 0.12 1.03 1.03 92 1018.5
20180220232429 39 5 2.0 9.0 0.12 1.03 1.03 92 1018.6
20180220232317 39 10 2.0 9.0 0.12 1.03 1.03 92 1018.5
20180220232224 39 5 2.0 9.0 0.13 1.03 1.03 92 1018.5
20180220232135 39 23 3.0 9.0 0.12 1.02 1.02 92 1018.4
20180220232022 39 5 3.0 9.0 0.12 1.02 1.02 92 1018.3
20180220231930 39 310 4.0 9.0 0.12 1.02 1.02 92 1018.2
20180220231816 39 355 3.0 9.0 0.13 1.02 1.02 92 1018.2
20180220231724 39 351 3.0 9.0 0.13 1.02 1.02 92 1018.1
20180220231631 39 333 3.0 9.0 0.12 1.01 1.01 92 1018.0
20180220231522 39 15 4.0 9.0 0.13 1.01 1.01 92 1017.9
20180220231429 39 317 3.0 9.0 0.13 1.01 1.01 92 1017.9
20180220231317 39 18 2.0 9.0 0.12 1.00 1.00 92 1017.9
20180220231225 39 319 3.0 9.0 0.12 1.00 1.00 92 1017.8
20180220231132 39 14 3.0 9.0 0.13 1.00 1.00 92 1017.7
20180220231024 39 5 2.0 9.0 0.13 1.00 1.00 92 1017.6
20180220230931 39 5 3.0 9.0 0.13 1.00 1.00 92 1017.6
20180220230817 40 36 4.0 9.0 0.13 1.00 1.00 92 1017.8
20180220230725 40 360 4.0 9.0 0.13 0.99 0.99 92 1017.9
20180220230633 40 19 4.0 9.0 0.13 0.99 0.99 92 1018.0
20180220230523 40 323 4.0 9.0 0.13 0.99 0.99 92 1018.1
20180220230432 40 10 4.0 9.0 0.13 0.99 0.99 92 1018.0
20180220230319 40 297 4.0 8.0 0.13 0.98 0.98 92 1017.9
20180220230226 40 313 3.0 8.0 0.13 0.98 0.98 92 1017.9
20180220230133 40 298 3.0 8.0 0.13 0.98 0.98 92 1017.9
20180220230031 40 46 3.0 8.0 0.13 0.97 0.97 92 1017.9
20180220225929 40 360 2.0 9.0 0.13 0.97 0.97 92 1017.7
20180220225836 40 306 2.0 9.0 0.13 0.97 0.97 92 1017.7
20180220225723 40 340 2.0 9.0 0.14 0.97 0.97 92 1017.6
20180220225629 40 328 2.0 9.0 0.14 0.97 0.97 92 1017.5
20180220225517 40 28 2.0 9.0 0.15 0.97 0.97 92 1017.4
20180220225427 40 42 3.0 9.0 0.15 0.97 0.97 92 1017.3
20180220225335 41 348 3.0 9.0 0.15 0.97 0.97 92 1017.3
20180220225222 41 335 4.0 9.0 0.15 0.96 0.96 92 1017.2
20180220225128 41 342 3.0 9.0 0.15 0.96 0.96 92 1017.2
20180220225036 41 355 3.0 9.0 0.16 0.96 0.96 92 1017.2
20180220224925 41 44 3.0 9.0 0.15 0.95 0.95 92 1017.1
20180220224835 41 360 3.0 9.0 0.16 0.95 0.95 92 1017.1
20180220224722 41 324 3.0 9.0 0.16 0.95 0.95 92 1017.0
20180220224629 41 360 3.0 9.0 0.17 0.95 0.95 92 1017.1
20180220224536 41 334 3.0 10.0 0.17 0.94 0.94 92 1017.1
20180220224423 41 360 4.0 10.0 0.17 0.94 0.94 92 1017.1
20180220224335 41 15 4.0 10.0 0.17 0.94 0.94 92 1017.0
20180220224222 41 23 3.0 10.0 0.18 0.94 0.94 92 1016.9
20180220224129 41 51 2.0 10.0 0.18 0.94 0.94 92 1016.9
20180220224018 41 355 2.0 10.0 0.19 0.94 0.94 92 1016.8
20180220223926 41 355 4.0 10.0 0.18 0.93 0.93 92 1016.8
20180220223818 41 336 4.0 10.0 0.18 0.93 0.93 92 1016.8
20180220223724 42 338 2.0 8.0 0.19 0.93 0.93 92 1016.8
20180220223633 42 21 2.0 8.0 0.19 0.93 0.93 92 1016.8
20180220223520 42 330 2.0 8.0 0.19 0.93 0.93 92 1016.7
20180220223427 42 26 2.0 8.0 0.19 0.92 0.92 92 1016.6
20180220223334 42 11 2.0 8.0 0.19 0.92 0.92 92 1016.6
20180220223223 42 360 2.0 8.0 0.20 0.92 0.92 92 1016.6
20180220223130 42 22 1.0 8.0 0.20 0.92 0.92 92 1016.6
20180220223017 42 18 2.0 8.0 0.21 0.92 0.92 92 1016.6
20180220222925 42 334 3.0 8.0 0.21 0.92 0.92 92 1016.6
20180220222832 42 319 3.0 8.0 0.20 0.91 0.91 92 1016.5
20180220222723 42 19 3.0 8.0 0.21 0.91 0.91 92 1016.5
20180220222630 42 338 2.0 8.0 0.21 0.91 0.91 92 1016.5
20180220222517 42 22 3.0 8.0 0.22 0.91 0.91 92 1016.5
20180220222424 42 349 2.0 8.0 0.23 0.91 0.91 92 1016.5
20180220222331 42 5 1.0 10.0 0.23 0.90 0.90 92 1016.5
20180220222219 42 323 2.0 10.0 0.24 0.90 0.90 92 1016.5
20180220222130 42 307 2.0 10.0 0.24 0.90 0.90 92 1016.5
20180220222037 42 351 3.0 10.0 0.25 0.90 0.90 92 1016.5
20180220221922 42 326 2.0 10.0 0.25 0.90 0.90 91 1016.5
20180220221830 42 15 2.0 10.0 0.25 0.89 0.89 91 1016.3
20180220221717 42 337 2.0 10.0 0.26 0.89 0.89 91 1016.2
20180220221628 42 5 3.0 10.0 0.27 0.89 0.89 91 1016.1
20180220221535 42 19 3.0 10.0 0.27 0.88 0.88 91 1016.1
20180220221422 42 348 3.0 9.0 0.27 0.88 0.88 91 1016.0
20180220221329 42 10 3.0 9.0 0.28 0.88 0.88 91 1016.0
20180220221235 43 355 2.0 9.0 0.28 0.87 0.87 91 1016.0
20180220221121 43 18 3.0 9.0 0.29 0.87 0.87 91 1016.0
20180220221032 43 20 3.0 9.0 0.31 0.87 0.87 91 1016.0
20180220220919 43 360 1.0 6.0 0.31 0.87 0.87 91 1015.9
20180220220826 43 347 1.0 6.0 0.32 0.87 0.87 91 1016.0
20180220220733 43 343 2.0 9.0 0.32 0.86 0.86 91 1016.1
20180220220620 43 310 2.0 9.0 0.32 0.86 0.86 91 1016.2
20180220220551 43 355 3.0 10.0 0.33 0.86 0.86 91 1016.3
20180220220335 43 282 3.0 10.0 0.34 0.85 0.85 91 1016.1
20180220220223 43 28 3.0 10.0 0.36 0.85 0.85 91 1016.0
20180220220131 43 76 3.0 10.0 0.36 0.84 0.84 91 1016.0
20180220220050 43 355 3.0 10.0 0.36 0.84 0.84 91 1016.2
20180220215924 43 17 2.0 10.0 0.37 0.84 0.84 91 1016.1
20180220215836 43 11 3.0 10.0 0.37 0.83 0.83 91 1016.3
20180220215722 44 35 4.0 10.0 0.38 0.83 0.83 91 1016.3
20180220215630 44 320 3.0 10.0 0.39 0.83 0.83 91 1016.4
20180220215517 44 355 4.0 10.0 0.38 0.82 0.82 91 1016.5
20180220215424 44 329 3.0 10.0 0.39 0.82 0.82 91 1016.4
20180220215334 44 319 2.0 9.0 0.38 0.81 0.81 91 1016.4
20180220215222 44 39 3.0 9.0 0.39 0.81 0.81 91 1016.4
20180220215130 44 65 3.0 9.0 0.40 0.80 0.80 90 1016.3
20180220215035 44 65 3.0 9.0 0.40 0.80 0.80 90 1016.3
20180220214923 44 51 3.0 9.0 0.39 0.79 0.79 90 1016.2
20180220214830 45 76 3.0 9.0 0.40 0.79 0.79 90 1016.3
20180220214722 45 13 3.0 9.0 0.39 0.78 0.78 90 1016.2
20180220214629 45 336 3.0 9.0 0.40 0.78 0.78 90 1016.2
20180220214518 45 32 4.0 9.0 0.39 0.77 0.77 90 1016.2
20180220214425 46 20 3.0 8.0 0.40 0.77 0.77 90 1016.3
20180220214331 46 5 2.0 8.0 0.40 0.76 0.76 90 1016.2
20180220214223 46 342 1.0 8.0 0.41 0.76 0.76 90 1016.1
20180220214130 46 342 3.0 8.0 0.42 0.76 0.76 90 1016.2
20180220214019 46 355 3.0 8.0 0.43 0.75 0.75 91 1016.1
20180220213927 47 66 2.0 8.0 0.44 0.75 0.75 91 1016.1
20180220213834 47 5 2.0 6.0 0.45 0.75 0.75 91 1016.0
20180220213726 47 350 2.0 6.0 0.45 0.74 0.74 91 1016.0
20180220213633 47 45 2.0 6.0 0.47 0.74 0.74 91 1016.1
20180220213520 47 311 2.0 6.0 0.47 0.73 0.73 91 1016.1
20180220213428 47 37 2.0 6.0 0.48 0.73 0.73 91 1016.0
20180220213335 47 342 1.0 5.0 0.50 0.73 0.73 91 1016.0
20180220213222 47 338 1.0 5.0 0.49 0.72 0.72 91 1016.2
20180220213133 47 321 1.0 5.0 0.50 0.72 0.72 91 1016.3
20180220213020 47 351 2.0 5.0 0.50 0.71 0.71 90 1016.2
20180220212928 47 348 2.0 5.0 0.51 0.71 0.71 90 1016.1
20180220212836 48 335 1.0 6.0 0.51 0.70 0.70 90 1016.0
20180220212723 48 335 1.0 8.0 0.51 0.70 0.70 90 1016.0
20180220212634 48 335 1.0 8.0 0.51 0.69 0.69 90 1015.8
20180220212521 48 5 2.0 8.0 0.50 0.68 0.68 90 1015.8
20180220212429 48 350 2.0 8.0 0.51 0.68 0.68 90 1015.7
20180220212334 48 5 2.0 8.0 0.50 0.67 0.67 90 1015.7
20180220212220 48 355 3.0 9.0 0.50 0.66 0.66 90 1015.7
20180220212124 48 5 3.0 9.0 0.49 0.65 0.65 90 1015.6
20180220212029 49 360 4.0 9.0 0.50 0.65 0.65 90 1015.5
20180220211931 49 341 3.0 9.0 0.49 0.64 0.64 90 1015.7
20180220211835 49 350 2.0 9.0 0.48 0.63 0.63 90 1015.8
20180220211731 49 320 3.0 9.0 0.47 0.62 0.62 90 1015.9
20180220211617 49 347 3.0 9.0 0.46 0.61 0.61 90 1015.9
20180220211522 49 346 4.0 9.0 0.46 0.61 0.61 90 1015.9
20180220211430 49 340 4.0 9.0 0.46 0.60 0.60 90 1016.0
20180220211335 50 319 2.0 5.0 0.45 0.59 0.59 90 1015.9
20180220211233 50 296 2.0 5.0 0.45 0.58 0.58 90 1015.9
20180220211118 50 322 2.0 5.0 0.44 0.57 0.57 90 1015.9
20180220211021 50 276 2.0 5.0 0.44 0.56 0.56 90 1015.7
20180220210921 50 16 2.0 5.0 0.43 0.55 0.55 90 1015.6
20180220210827 50 328 2.0 5.0 0.43 0.55 0.55 90 1015.6
20180220210728 50 350 1.0 3.0 0.42 0.54 0.54 90 1015.6
20180220210633 50 5 2.0 3.0 0.41 0.53 0.53 90 1015.6
20180220210519 50 17 2.0 4.0 0.41 0.52 0.52 90 1015.5
20180220210424 51 348 1.0 4.0 0.40 0.51 0.51 90 1015.5
20180220210327 51 340 1.0 4.0 0.39 0.50 0.50 90 1015.6
20180220210231 51 335 1.0 4.0 0.38 0.49 0.49 90 1015.6
20180220210136 51 337 0.0 4.0 0.37 0.48 0.48 90 1015.6
20180220210034 51 337 0.0 4.0 0.36 0.47 0.47 90 1015.6
20180220205925 51 337 1.0 4.0 0.35 0.46 0.46 90 1015.4
20180220205831 51 337 1.0 4.0 0.34 0.45 0.45 90 1015.2
20180220205721 51 340 1.0 4.0 0.33 0.44 0.44 90 1015.2
20180220205630 51 335 1.0 4.0 0.33 0.44 0.44 90 1015.3
20180220205536 51 355 1.0 6.0 0.32 0.43 0.44 90 1015.3
20180220205423 51 355 2.0 6.0 0.32 0.43 0.43 90 1015.3
20180220205330 51 350 2.0 6.0 0.31 0.42 0.42 90 1015.2
20180220205217 51 198 2.0 6.0 0.30 0.41 0.41 90 1015.2
20180220205129 51 198 2.0 6.0 0.29 0.40 0.40 90 1015.3
20180220205017 51 198 1.0 8.0 0.29 0.40 0.40 90 1015.3
20180220204927 52 198 1.0 8.0 0.29 0.40 0.40 90 1015.2
20180220204833 52 198 2.0 8.0 0.28 0.39 0.39 89 1015.2
20180220204720 52 192 4.0 11.0 0.28 0.39 0.39 89 1015.3
20180220204631 52 189 4.0 11.0 0.27 0.38 0.38 88 1015.4
20180220204517 52 164 3.0 11.0 0.26 0.37 0.37 88 1015.4
20180220204423 52 197 3.0 11.0 0.25 0.36 0.36 88 1015.3
20180220204332 52 188 4.0 11.0 0.25 0.36 0.36 88 1015.2
20180220204218 52 270 4.0 11.0 0.23 0.34 0.34 87 1015.2
20180220204123 52 277 3.0 11.0 0.21 0.32 0.32 87 1015.2
20180220204031 53 281 4.0 11.0 0.20 0.31 0.31 87 1015.0
20180220203917 53 278 6.0 11.0 0.19 0.30 0.30 86 1014.9
20180220203821 53 339 7.0 12.0 0.18 0.29 0.29 85 1014.8
20180220203718 53 355 6.0 13.0 0.17 0.28 0.28 84 1014.8
20180220203625 53 327 4.0 13.0 0.15 0.26 0.26 84 1014.9
20180220203531 54 26 4.0 14.0 0.14 0.25 0.25 83 1014.9
20180220203420 54 317 5.0 14.0 0.12 0.23 0.23 83 1015.3
20180220203325 55 316 5.0 14.0 0.12 0.23 0.23 82 1015.5
20180220203227 55 271 5.0 14.0 0.11 0.22 0.22 82 1015.6
20180220203130 56 288 6.0 17.0 0.11 0.22 0.22 81 1015.5
20180220203016 57 300 6.0 17.0 0.09 0.20 0.20 81 1015.5
20180220202926 57 320 7.0 17.0 0.08 0.19 0.19 82 1015.2
20180220202833 58 350 6.0 17.0 0.08 0.19 0.19 81 1015.5
20180220202720 58 281 4.0 17.0 0.07 0.18 0.18 82 1015.0
20180220202627 59 14 2.0 17.0 0.07 0.18 0.18 82 1014.6
20180220202534 59 42 3.0 17.0 0.06 0.17 0.17 81 1014.5
20180220202420 60 18 7.0 17.0 0.06 0.17 0.17 80 1014.7
20180220202332 61 355 8.0 17.0 0.05 0.16 0.16 80 1014.9
20180220202219 62 279 5.0 11.0 0.05 0.16 0.16 83 1015.0
20180220202126 63 320 3.0 10.0 0.05 0.16 0.16 84 1014.9
20180220202035 63 309 2.0 14.0 0.04 0.15 0.15 85 1014.8
20180220201923 64 36 2.0 14.0 0.04 0.15 0.15 87 1014.5
20180220201834 64 36 2.0 14.0 0.04 0.15 0.15 87 1014.4
20180220201722 64 47 2.0 14.0 0.04 0.15 0.15 87 1014.3
20180220201628 64 22 2.0 14.0 0.04 0.15 0.15 87 1014.3
20180220201516 64 163 3.0 14.0 0.03 0.14 0.14 87 1014.3
20180220201423 64 165 6.0 14.0 0.03 0.14 0.14 87 1014.3
20180220201331 64 161 6.0 14.0 0.03 0.14 0.14 86 1014.3
20180220201223 64 193 7.0 16.0 0.02 0.13 0.13 86 1014.3
20180220201129 64 212 8.0 16.0 0.02 0.13 0.13 86 1014.2
20180220201017 64 192 8.0 16.0 0.01 0.12 0.12 86 1014.2
20180220200926 64 192 8.0 20.0 0.01 0.12 0.12 86 1014.2
20180220200833 64 186 7.0 20.0 0.01 0.12 0.12 85 1014.2
20180220200722 64 246 9.0 23.0 0.01 0.12 0.12 85 1014.1
20180220200629 64 202 10.0 23.0 0.00 0.11 0.11 85 1014.1
20180220200534 64 209 10.0 23.0 0.00 0.11 0.11 84 1014.1
20180220200417 65 145 9.0 23.0 0.00 0.11 0.11 84 1014.0
20180220200324 65 226 8.0 23.0 0.00 0.11 0.11 84 1014.0
20180220200230 65 187 9.0 23.0 0.00 0.11 0.11 83 1014.0
20180220200121 65 238 12.0 23.0 0.00 0.11 0.11 83 1014.0
20180220200039 65 225 13.0 23.0 0.00 0.11 0.11 83 1014.0
20180220195933 65 183 12.0 22.0 0.00 0.11 0.11 83 1014.0
20180220195820 65 259 11.0 21.0 0.00 0.11 0.11 83 1013.9
20180220195727 65 198 12.0 21.0 0.00 0.11 0.11 82 1014.0
20180220195618 65 146 13.0 21.0 0.00 0.11 0.11 82 1014.0
20180220195526 65 212 12.0 23.0 0.00 0.11 0.11 81 1013.9
20180220195433 66 184 10.0 23.0 0.00 0.11 0.11 81 1014.0
20180220195319 66 225 9.0 23.0 0.00 0.11 0.11 81 1013.9
20180220195227 66 195 12.0 23.0 0.01 0.11 0.11 80 1014.0
20180220195118 66 169 12.0 23.0 0.01 0.11 0.11 80 1014.0
20180220195025 66 232 10.0 23.0 0.01 0.11 0.11 80 1014.0
20180220194934 66 178 11.0 23.0 0.01 0.11 0.11 80 1014.0
20180220194822 66 188 14.0 23.0 0.01 0.11 0.11 80 1014.0
20180220194729 66 179 13.0 23.0 0.01 0.11 0.11 79 1014.0
20180220194636 66 178 11.0 22.0 0.01 0.11 0.11 80 1014.0
20180220194527 66 180 12.0 22.0 0.01 0.11 0.11 79 1014.0
20180220194433 66 198 12.0 22.0 0.01 0.11 0.11 79 1014.0
20180220194321 66 205 11.0 28.0 0.01 0.11 0.11 79 1014.0
20180220194225 66 163 12.0 28.0 0.01 0.11 0.11 79 1014.0
20180220194131 66 169 14.0 28.0 0.01 0.11 0.11 79 1013.9
20180220194021 66 144 16.0 28.0 0.01 0.11 0.11 79 1013.9
20180220193930 66 175 15.0 28.0 0.01 0.11 0.11 79 1014.0
20180220193817 66 209 13.0 28.0 0.01 0.11 0.11 80 1014.0
20180220193724 66 159 12.0 28.0 0.01 0.11 0.11 80 1014.0
20180220193632 66 196 13.0 28.0 0.01 0.11 0.11 80 1014.0
20180220193519 66 214 12.0 20.0 0.01 0.11 0.11 80 1014.1
20180220193430 66 194 10.0 18.0 0.01 0.11 0.11 80 1014.1
20180220193316 66 184 12.0 18.0 0.01 0.11 0.11 80 1014.1
20180220193225 66 182 12.0 18.0 0.01 0.11 0.11 80 1014.1
20180220193132 66 178 12.0 19.0 0.01 0.11 0.11 80 1014.2
20180220193019 66 196 12.0 17.0 0.01 0.11 0.11 81 1014.1
20180220192931 66 184 12.0 18.0 0.01 0.11 0.11 81 1014.0
20180220192818 66 226 12.0 18.0 0.01 0.11 0.11 81 1014.1
20180220192725 66 199 11.0 18.0 0.01 0.11 0.11 81 1014.2
20180220192632 66 218 10.0 19.0 0.01 0.11 0.11 81 1014.2
20180220192518 66 207 10.0 19.0 0.01 0.11 0.11 81 1014.2
20180220192426 66 127 10.0 19.0 0.01 0.11 0.11 81 1014.2
20180220192317 66 155 10.0 19.0 0.01 0.11 0.11 81 1014.3
20180220192224 66 222 12.0 19.0 0.01 0.11 0.11 81 1014.2
20180220192131 66 210 12.0 19.0 0.01 0.11 0.11 81 1014.2
20180220192018 66 161 12.0 19.0 0.01 0.11 0.11 82 1014.2
20180220191926 66 197 12.0 19.0 0.01 0.11 0.11 82 1014.2
20180220191817 66 194 11.0 19.0 0.01 0.11 0.11 82 1014.3
20180220191723 66 184 10.0 19.0 0.01 0.11 0.11 82 1014.3
20180220191628 66 178 11.0 18.0 0.01 0.11 0.11 82 1014.3
20180220191534 66 213 10.0 18.0 0.01 0.11 0.11 82 1014.4
20180220191421 66 213 8.0 19.0 0.01 0.11 0.11 82 1014.4
20180220191328 66 186 10.0 19.0 0.01 0.11 0.11 82 1014.4
20180220191219 66 219 13.0 19.0 0.01 0.11 0.11 82 1014.5
20180220191127 66 189 12.0 19.0 0.01 0.11 0.11 82 1014.5
20180220191029 66 217 12.0 19.0 0.01 0.11 0.11 82 1014.5
20180220190917 66 171 13.0 19.0 0.01 0.11 0.11 81 1014.4
20180220190825 66 194 12.0 19.0 0.01 0.11 0.11 82 1014.5
20180220190735 66 192 11.0 19.0 0.01 0.11 0.11 81 1014.6
20180220190623 66 185 12.0 19.0 0.01 0.11 0.11 81 1014.5
20180220190529 66 189 13.0 20.0 0.01 0.11 0.11 81 1014.5
20180220190417 66 198 11.0 20.0 0.01 0.11 0.11 82 1014.6
20180220190324 66 254 10.0 21.0 0.01 0.11 0.11 82 1014.6
20180220190230 66 162 11.0 21.0 0.01 0.11 0.11 82 1014.6
20180220190122 66 185 10.0 21.0 0.01 0.11 0.11 82 1014.5
20180220190040 66 223 10.0 17.0 0.01 0.11 0.11 82 1014.5
20180220185934 66 221 10.0 17.0 0.01 0.11 0.11 82 1014.4
20180220185822 66 237 10.0 20.0 0.01 0.11 0.11 82 1014.6
20180220185729 66 192 9.0 20.0 0.01 0.11 0.11 82 1014.6
20180220185620 66 184 10.0 20.0 0.01 0.11 0.11 81 1014.6
20180220185526 66 159 11.0 20.0 0.01 0.11 0.11 81 1014.6
20180220185433 66 208 11.0 20.0 0.01 0.11 0.11 81 1014.7
20180220185321 66 168 10.0 20.0 0.00 0.10 0.10 81 1014.8
20180220185227 66 148 11.0 20.0 0.00 0.10 0.10 81 1014.7
20180220185119 66 181 11.0 20.0 0.00 0.10 0.10 81 1014.8
20180220185026 66 203 10.0 20.0 0.00 0.10 0.10 81 1014.8
20180220184934 66 193 9.0 16.0 0.00 0.10 0.10 81 1014.8
20180220184820 66 244 7.0 16.0 0.00 0.10 0.10 81 1014.8
20180220184728 66 229 7.0 16.0 0.00 0.10 0.10 82 1014.9
20180220184635 66 180 7.0 16.0 0.00 0.10 0.10 81 1014.8
20180220184527 66 190 11.0 16.0 0.00 0.10 0.10 81 1014.8
20180220184433 66 211 12.0 16.0 0.00 0.10 0.10 82 1014.9
20180220184321 66 217 10.0 16.0 0.00 0.10 0.10 81 1014.9
20180220184229 66 221 9.0 16.0 0.00 0.10 0.10 82 1014.8
20180220184116 66 190 7.0 16.0 0.00 0.10 0.10 82 1014.9
20180220184027 66 202 7.0 16.0 0.00 0.10 0.10 82 1014.9
20180220183936 66 221 8.0 16.0 0.00 0.10 0.10 82 1014.8
20180220183822 66 207 9.0 16.0 0.00 0.10 0.10 81 1014.9
20180220183729 66 186 10.0 16.0 0.00 0.10 0.10 81 1014.8
20180220183617 66 202 11.0 16.0 0.00 0.10 0.10 81 1014.8
20180220183523 66 172 11.0 16.0 0.00 0.10 0.10 82 1014.8
20180220183435 66 182 9.0 15.0 0.00 0.10 0.10 82 1014.8
20180220183321 66 206 10.0 14.0 0.00 0.10 0.10 83 1014.8
20180220183228 66 229 10.0 15.0 0.00 0.10 0.10 83 1014.8
20180220183135 66 187 9.0 14.0 0.00 0.10 0.10 83 1014.8
20180220183023 66 221 9.0 14.0 0.00 0.10 0.10 83 1014.9
20180220182936 66 199 7.0 14.0 0.00 0.10 0.10 83 1014.8
20180220182822 66 251 8.0 15.0 0.00 0.10 0.10 83 1014.8
20180220182729 66 203 9.0 15.0 0.00 0.10 0.10 83 1014.7
20180220182616 66 189 9.0 15.0 0.00 0.10 0.10 83 1014.7
20180220182524 66 196 8.0 15.0 0.00 0.10 0.10 83 1014.8
20180220182431 66 235 8.0 15.0 0.00 0.10 0.10 83 1014.8
20180220182322 66 223 8.0 15.0 0.00 0.10 0.10 83 1014.8
20180220182229 66 183 10.0 15.0 0.00 0.10 0.10 83 1014.8
20180220182117 66 198 10.0 20.0 0.00 0.10 0.10 83 1014.9
20180220182024 66 198 8.0 20.0 0.00 0.10 0.10 83 1014.8
20180220181933 66 192 9.0 20.0 0.00 0.10 0.10 83 1014.9
20180220181824 66 192 9.0 20.0 0.00 0.10 0.10 83 1014.8
20180220181731 66 207 10.0 20.0 0.00 0.10 0.10 83 1014.8
20180220181618 66 250 11.0 20.0 0.00 0.10 0.10 82 1014.9
20180220181526 66 204 10.0 20.0 0.00 0.10 0.10 83 1014.8
20180220181433 66 232 9.0 20.0 0.00 0.10 0.10 82 1014.8
20180220181324 66 215 10.0 19.0 0.00 0.10 0.10 82 1014.8
20180220181230 66 216 8.0 23.0 0.00 0.10 0.10 82 1014.8
20180220181118 66 240 9.0 23.0 0.00 0.10 0.10 82 1014.9
20180220181025 66 170 12.0 23.0 0.00 0.10 0.10 82 1014.8
20180220180934 66 213 12.0 23.0 0.00 0.10 0.10 81 1014.9
20180220180821 67 281 11.0 23.0 0.00 0.10 0.10 81 1014.8
20180220180732 67 194 11.0 23.0 0.00 0.10 0.10 81 1014.8
20180220180619 67 196 13.0 23.0 0.00 0.10 0.10 80 1014.8
20180220180525 67 248 14.0 23.0 0.00 0.10 0.10 80 1015.0
20180220180432 67 215 14.0 23.0 0.00 0.10 0.10 79 1015.0
20180220180320 68 237 12.0 26.0 0.00 0.10 0.10 79 1014.9
20180220180231 68 194 13.0 26.0 0.00 0.10 0.10 78 1015.0
20180220180118 68 205 16.0 26.0 0.00 0.10 0.10 77 1015.0
20180220180036 68 256 16.0 26.0 0.00 0.10 0.10 77 1014.9
20180220175930 68 223 12.0 25.0 0.00 0.10 0.10 77 1014.9
20180220175816 69 215 12.0 25.0 0.00 0.10 0.10 76 1014.9
20180220175724 69 158 13.0 25.0 0.00 0.10 0.10 76 1014.9
20180220175634 69 175 12.0 26.0 0.00 0.10 0.10 76 1015.0
20180220175522 69 195 12.0 26.0 0.00 0.10 0.10 76 1014.8
20180220175429 69 169 15.0 26.0 0.00 0.10 0.10 76 1014.8
20180220175316 69 202 16.0 26.0 0.00 0.10 0.10 76 1014.9
20180220175224 69 180 17.0 26.0 0.00 0.10 0.10 76 1014.9
20180220175136 69 225 15.0 26.0 0.00 0.10 0.10 76 1015.0
20180220175023 69 184 13.0 33.0 0.00 0.10 0.10 76 1014.9
20180220174931 69 157 15.0 33.0 0.00 0.10 0.10 76 1014.9
20180220174817 69 227 15.0 33.0 0.00 0.10 0.10 76 1014.8
20180220174724 69 242 15.0 33.0 0.00 0.10 0.10 76 1014.8
20180220174632 69 165 15.0 33.0 0.00 0.10 0.10 76 1014.8
20180220174522 69 183 13.0 33.0 0.00 0.10 0.10 76 1014.8
20180220174430 69 213 15.0 33.0 0.00 0.10 0.10 76 1014.7
20180220174336 69 175 20.0 33.0 0.00 0.10 0.10 75 1014.6
20180220174222 69 136 18.0 33.0 0.00 0.10 0.10 75 1014.8
20180220174129 69 227 16.0 33.0 0.00 0.10 0.10 76 1014.8
20180220174021 69 153 19.0 30.0 0.00 0.10 0.10 76 1014.5
20180220173930 69 184 18.0 31.0 0.00 0.10 0.10 76 1014.8
20180220173817 69 229 15.0 25.0 0.00 0.10 0.10 77 1014.8
20180220173725 69 214 14.0 22.0 0.00 0.10 0.10 77 1014.7
20180220173632 69 184 13.0 22.0 0.00 0.10 0.10 77 1014.6
20180220173523 69 191 12.0 23.0 0.00 0.10 0.10 77 1014.7
20180220173430 69 213 13.0 23.0 0.00 0.10 0.10 77 1014.7
20180220173317 69 186 15.0 24.0 0.00 0.10 0.10 77 1014.7
20180220173224 69 194 14.0 23.0 0.00 0.10 0.10 77 1014.6
20180220173132 69 202 13.0 23.0 0.00 0.10 0.10 77 1014.6
20180220173019 69 169 15.0 23.0 0.00 0.10 0.10 77 1014.5
20180220172931 69 172 15.0 23.0 0.00 0.10 0.10 77 1014.5
20180220172818 69 159 16.0 23.0 0.00 0.10 0.10 77 1014.5
20180220172725 69 197 16.0 26.0 0.00 0.10 0.10 77 1014.6
20180220172633 69 187 16.0 23.0 0.00 0.10 0.10 77 1014.5
20180220172520 69 196 14.0 23.0 0.00 0.10 0.10 77 1014.5
20180220172431 69 148 13.0 19.0 0.00 0.10 0.10 77 1014.5
20180220172319 69 161 14.0 21.0 0.00 0.10 0.10 77 1014.4
20180220172226 69 240 12.0 22.0 0.00 0.10 0.10 77 1014.4
20180220172134 69 180 9.0 22.0 0.00 0.10 0.10 77 1014.5
20180220172022 69 235 8.0 22.0 0.00 0.10 0.10 77 1014.4
20180220171930 69 211 9.0 22.0 0.00 0.10 0.10 77 1014.4
20180220171821 69 219 9.0 22.0 0.00 0.10 0.10 77 1014.4
20180220171728 69 153 10.0 22.0 0.00 0.10 0.10 77 1014.5
20180220171635 69 173 10.0 22.0 0.00 0.10 0.10 76 1014.4
20180220171521 69 213 10.0 22.0 0.00 0.10 0.10 76 1014.4
20180220171428 69 127 12.0 22.0 0.00 0.10 0.10 76 1014.4
20180220171319 69 188 12.0 23.0 0.00 0.10 0.10 76 1014.3
20180220171227 69 176 9.0 23.0 0.00 0.10 0.10 76 1014.3
20180220171134 69 209 11.0 23.0 0.00 0.10 0.10 76 1014.3
20180220171021 69 191 13.0 23.0 0.00 0.10 0.10 76 1014.3
20180220170929 69 172 12.0 23.0 0.00 0.10 0.10 76 1014.3
20180220170821 69 149 10.0 23.0 0.00 0.10 0.10 76 1014.3
20180220170729 69 262 12.0 27.0 0.00 0.10 0.10 76 1014.2
20180220170635 69 182 14.0 27.0 0.00 0.10 0.10 76 1014.1
20180220170523 69 205 11.0 27.0 0.00 0.10 0.10 76 1014.2
20180220170429 69 114 12.0 27.0 0.00 0.10 0.10 75 1014.2
20180220170317 69 146 12.0 27.0 0.00 0.10 0.10 75 1013.9
20180220170231 69 242 13.0 27.0 0.00 0.10 0.10 75 1014.2
20180220170134 69 51 13.0 27.0 0.00 0.10 0.10 75 1014.0
20180220170042 69 238 14.0 28.0 0.00 0.10 0.10 75 1014.0
20180220165928 69 157 15.0 28.0 0.00 0.10 0.10 75 1013.9
20180220165834 69 211 12.0 28.0 0.00 0.20 0.10 75 1014.1
20180220165725 69 178 14.0 30.0 0.00 0.20 0.10 75 1013.8
20180220165632 69 236 16.0 30.0 0.00 0.20 0.10 75 1013.9
20180220165520 69 254 17.0 30.0 0.00 0.20 0.10 75 1014.0
20180220165427 69 184 16.0 30.0 0.00 0.20 0.10 75 1014.0
20180220165334 69 169 18.0 33.0 0.00 0.20 0.10 75 1014.0
20180220165221 70 191 18.0 33.0 0.00 0.20 0.10 75 1013.9
20180220165133 70 220 18.0 33.0 0.00 0.20 0.10 75 1013.9
20180220165020 70 215 19.0 33.0 0.00 0.20 0.10 74 1013.8
20180220164929 70 195 15.0 33.0 0.00 0.20 0.10 75 1013.7
20180220164835 70 250 13.0 33.0 0.00 0.20 0.10 75 1013.9
20180220164722 70 201 19.0 33.0 0.00 0.20 0.10 75 1013.9
20180220164633 70 182 21.0 33.0 0.00 0.20 0.10 74 1013.9
20180220164521 70 137 18.0 33.0 0.00 0.20 0.10 75 1013.6
20180220164428 70 146 17.0 33.0 0.00 0.20 0.10 75 1013.6
20180220164335 70 178 18.0 33.0 0.00 0.20 0.10 75 1013.8
20180220164223 70 167 18.0 33.0 0.00 0.20 0.10 75 1013.8
20180220164131 70 229 15.0 33.0 0.00 0.20 0.10 76 1013.6
20180220164021 70 231 16.0 33.0 0.00 0.20 0.10 75 1013.7
20180220163930 70 196 17.0 33.0 0.00 0.20 0.10 75 1013.6
20180220163816 70 192 18.0 33.0 0.00 0.20 0.10 75 1013.7
20180220163723 70 145 19.0 33.0 0.00 0.20 0.10 75 1013.6
20180220163631 70 176 18.0 34.0 0.00 0.20 0.10 75 1013.8
20180220163521 70 147 16.0 30.0 0.00 0.20 0.10 75 1013.5
20180220163428 70 193 17.0 30.0 0.00 0.20 0.10 75 1013.5
20180220163335 70 198 19.0 30.0 0.00 0.20 0.10 75 1013.5
20180220163222 70 219 20.0 30.0 0.00 0.20 0.10 75 1013.4
20180220163131 70 171 19.0 30.0 0.00 0.20 0.10 75 1013.4
20180220163022 70 173 17.0 38.0 0.00 0.20 0.10 75 1013.3
20180220162930 70 207 18.0 38.0 0.00 0.20 0.10 75 1013.3
20180220162816 70 185 23.0 38.0 0.00 0.20 0.10 75 1013.3
20180220162723 70 198 21.0 38.0 0.00 0.20 0.10 75 1013.1
20180220162630 70 209 17.0 38.0 0.00 0.20 0.10 75 1013.3
20180220162517 69 202 17.0 38.0 0.00 0.20 0.10 76 1013.2
20180220162428 69 219 17.0 38.0 0.00 0.20 0.10 76 1013.3
20180220162335 69 222 18.0 38.0 0.00 0.20 0.10 76 1013.2
20180220162222 69 233 23.0 38.0 0.00 0.20 0.10 75 1013.0
20180220162129 69 167 21.0 39.0 0.00 0.20 0.10 76 1013.0
20180220162017 69 192 17.0 33.0 0.00 0.20 0.10 76 1013.1
20180220161929 69 180 18.0 33.0 0.00 0.20 0.10 76 1012.9
20180220161836 69 207 16.0 31.0 0.00 0.20 0.10 77 1013.0
20180220161723 69 207 15.0 31.0 0.00 0.20 0.10 77 1012.9
20180220161630 69 217 15.0 31.0 0.00 0.20 0.10 77 1012.9
20180220161517 69 172 16.0 31.0 0.00 0.20 0.10 77 1012.8
20180220161425 69 155 18.0 33.0 0.00 0.20 0.10 77 1013.0
20180220161316 69 229 20.0 31.0 0.00 0.20 0.10 77 1012.9
20180220161224 69 227 19.0 31.0 0.00 0.20 0.10 77 1012.8
20180220161130 69 198 16.0 31.0 0.00 0.20 0.10 77 1012.9
20180220161017 69 172 15.0 28.0 0.00 0.20 0.10 78 1012.8
20180220160926 69 134 18.0 32.0 0.00 0.20 0.10 78 1012.8
20180220160816 68 198 21.0 32.0 0.00 0.20 0.10 78 1012.7
20180220160722 68 258 21.0 32.0 0.00 0.20 0.10 78 1012.7
20180220160629 68 221 18.0 32.0 0.00 0.20 0.10 79 1012.6
20180220160516 68 248 15.0 32.0 0.00 0.20 0.10 79 1012.7
20180220160424 68 250 16.0 32.0 0.00 0.20 0.10 79 1012.7
20180220160331 68 198 17.0 32.0 0.00 0.20 0.10 79 1012.8
20180220160221 68 183 21.0 32.0 0.00 0.20 0.10 79 1012.8
20180220160128 68 193 22.0 32.0 0.00 0.20 0.10 80 1012.7
20180220160047 67 207 20.0 31.0 0.00 0.20 0.10 80 1012.9
20180220155921 67 169 19.0 31.0 0.00 0.20 0.10 81 1012.8
20180220155828 67 196 22.0 31.0 0.00 0.20 0.10 81 1012.8
20180220155718 67 168 20.0 30.0 0.00 0.20 0.10 81 1012.9
20180220155625 67 212 16.0 27.0 0.00 0.20 0.10 82 1012.9
20180220155532 67 177 16.0 27.0 0.00 0.20 0.10 82 1012.9
20180220155420 67 213 18.0 27.0 0.00 0.20 0.10 82 1013.1
20180220155327 67 204 19.0 27.0 0.00 0.20 0.10 82 1013.1
20180220155219 67 182 17.0 32.0 0.00 0.20 0.10 83 1013.1
20180220155126 67 218 18.0 32.0 0.00 0.20 0.10 83 1013.1
20180220155033 67 155 18.0 32.0 0.00 0.20 0.10 83 1013.1
20180220154922 67 217 18.0 32.0 0.00 0.20 0.10 84 1013.2
20180220154828 67 225 17.0 32.0 0.00 0.20 0.10 84 1013.1
20180220154735 67 185 16.0 32.0 0.00 0.20 0.10 84 1013.3
20180220154626 67 196 18.0 32.0 0.00 0.20 0.10 84 1013.2
20180220154533 66 227 19.0 32.0 0.00 0.20 0.10 84 1013.3
20180220154420 66 169 18.0 32.0 0.00 0.20 0.10 85 1013.3
20180220154327 66 196 19.0 29.0 0.00 0.20 0.10 85 1013.1
20180220154234 66 182 20.0 29.0 0.01 0.20 0.10 85 1013.3
20180220154125 66 213 17.0 25.0 0.01 0.20 0.10 86 1013.3
20180220154032 66 193 15.0 25.0 0.01 0.20 0.10 86 1013.3
20180220153920 66 169 14.0 32.0 0.01 0.20 0.10 86 1013.4
20180220153827 66 142 13.0 32.0 0.01 0.20 0.10 86 1013.4
20180220153734 66 191 12.0 32.0 0.01 0.20 0.10 86 1013.3
20180220153621 66 212 12.0 32.0 0.01 0.20 0.10 86 1013.4
20180220153532 66 177 12.0 32.0 0.01 0.20 0.10 86 1013.5
20180220153419 66 185 15.0 32.0 0.01 0.20 0.10 86 1013.5
20180220153326 66 187 17.0 32.0 0.02 0.20 0.10 86 1013.5
20180220153233 66 202 17.0 32.0 0.02 0.20 0.10 86 1013.5
20180220153121 66 211 16.0 34.0 0.02 0.20 0.10 86 1013.7
20180220153031 66 178 17.0 24.0 0.03 0.20 0.10 86 1013.6
20180220152920 66 166 15.0 24.0 0.04 0.20 0.10 86 1013.6
20180220152827 65 175 14.0 23.0 0.04 0.20 0.10 87 1013.7
20180220152734 65 188 16.0 23.0 0.05 0.20 0.10 87 1013.6
20180220152621 65 198 12.0 23.0 0.06 0.20 0.10 87 1013.6
20180220152529 65 234 11.0 23.0 0.06 0.20 0.10 87 1013.7
20180220152420 65 194 13.0 23.0 0.06 0.20 0.10 87 1013.7
20180220152327 65 175 14.0 26.0 0.07 0.20 0.10 87 1013.8
20180220152234 65 182 15.0 30.0 0.08 0.20 0.10 87 1013.6
20180220152121 65 165 17.0 30.0 0.08 0.20 0.10 87 1013.6
20180220152029 65 181 13.0 30.0 0.09 0.20 0.10 87 1013.6
20180220151921 65 193 11.0 30.0 0.09 0.20 0.10 88 1013.8
20180220151828 65 213 14.0 30.0 0.09 0.20 0.10 87 1013.8
20180220151735 65 187 14.0 30.0 0.09 0.20 0.10 87 1013.8
20180220151622 65 194 16.0 30.0 0.09 0.20 0.10 87 1013.9
20180220151530 65 178 16.0 30.0 0.10 0.20 0.10 88 1014.1
20180220151420 65 165 12.0 30.0 0.10 0.20 0.10 88 1014.1
20180220151327 65 202 10.0 24.0 0.10 0.20 0.10 88 1013.9
20180220151234 65 217 9.0 28.0 0.10 0.20 0.10 88 1014.0
20180220151121 65 196 11.0 28.0 0.10 0.20 0.10 88 1013.8
20180220151028 65 183 12.0 28.0 0.10 0.20 0.10 88 1014.0
20180220150917 65 190 12.0 28.0 0.10 0.20 0.10 88 1013.9
20180220150827 65 183 12.0 28.0 0.10 0.20 0.10 88 1013.9
20180220150734 65 204 12.0 28.0 0.10 0.20 0.10 87 1013.8
20180220150618 65 211 12.0 28.0 0.10 0.20 0.10 87 1013.8
20180220150525 65 197 14.0 28.0 0.10 0.20 0.10 87 1013.8
20180220150432 65 180 15.0 28.0 0.10 0.20 0.10 87 1013.9
20180220150324 65 196 13.0 28.0 0.10 0.20 0.10 87 1013.9
20180220150230 65 209 15.0 28.0 0.10 0.20 0.10 87 1013.9
20180220150117 65 241 15.0 29.0 0.10 0.20 0.10 87 1013.9
20180220150035 65 177 14.0 28.0 0.10 0.20 0.10 87 1014.0
20180220145930 65 192 14.0 28.0 0.10 0.20 0.10 87 1013.9
20180220145816 65 192 17.0 28.0 0.10 0.20 0.10 87 1014.0
20180220145727 65 209 18.0 28.0 0.10 0.20 0.10 87 1013.9
20180220145635 65 205 15.0 28.0 0.10 0.20 0.10 87 1014.0
20180220145521 65 194 18.0 28.0 0.10 0.20 0.10 87 1013.9
20180220145428 65 183 18.0 28.0 0.10 0.20 0.10 87 1013.9
20180220145335 65 233 19.0 28.0 0.10 0.20 0.10 87 1013.9
20180220145226 65 209 20.0 29.0 0.10 0.20 0.10 87 1013.7
20180220145133 65 188 17.0 24.0 0.10 0.20 0.10 88 1013.9
20180220145020 65 197 15.0 24.0 0.10 0.20 0.10 88 1013.9
20180220144929 65 211 15.0 24.0 0.10 0.20 0.10 88 1013.9
20180220144835 65 247 15.0 25.0 0.10 0.20 0.10 89 1014.0
20180220144722 65 215 12.0 24.0 0.10 0.20 0.10 89 1014.0
20180220144633 65 237 13.0 24.0 0.10 0.20 0.10 89 1014.0
20180220144520 65 202 13.0 24.0 0.10 0.20 0.10 89 1014.1
20180220144428 65 219 13.0 24.0 0.10 0.20 0.10 89 1014.1
20180220144335 65 198 14.0 22.0 0.10 0.20 0.10 89 1014.0
20180220144222 65 187 14.0 22.0 0.09 0.19 0.09 89 1014.2
20180220144133 65 180 14.0 22.0 0.09 0.19 0.09 89 1014.2
20180220144020 65 210 15.0 22.0 0.09 0.19 0.09 89 1014.2
20180220143928 65 188 14.0 22.0 0.09 0.19 0.09 89 1014.1
20180220143816 65 183 13.0 21.0 0.09 0.19 0.09 89 1014.1
20180220143723 64 162 13.0 21.0 0.09 0.19 0.09 90 1014.2
20180220143630 64 183 10.0 19.0 0.09 0.19 0.09 90 1014.1
20180220143521 64 130 9.0 22.0 0.09 0.19 0.09 89 1014.2
20180220143428 64 173 11.0 22.0 0.09 0.19 0.09 89 1014.1
20180220143335 64 175 13.0 23.0 0.08 0.18 0.08 89 1014.0
20180220143221 64 245 11.0 26.0 0.08 0.18 0.08 89 1014.0
20180220143127 64 177 12.0 26.0 0.08 0.18 0.08 89 1014.1
20180220143019 65 229 14.0 26.0 0.07 0.17 0.07 89 1014.1
20180220142928 65 198 13.0 30.0 0.06 0.16 0.06 89 1014.2
20180220142833 65 229 12.0 30.0 0.05 0.15 0.05 89 1014.0
20180220142720 65 189 13.0 30.0 0.04 0.14 0.04 89 1014.2
20180220142627 65 188 14.0 33.0 0.04 0.14 0.04 88 1014.0
20180220142518 65 200 12.0 33.0 0.04 0.14 0.04 88 1014.1
20180220142426 65 192 12.0 33.0 0.03 0.13 0.03 88 1014.0
20180220142334 65 155 13.0 33.0 0.02 0.12 0.02 88 1014.0
20180220142221 65 184 17.0 33.0 0.02 0.12 0.02 87 1013.8
20180220142128 65 194 19.0 33.0 0.01 0.11 0.01 87 1013.8
20180220142035 66 198 19.0 33.0 0.01 0.11 0.01 86 1013.6
20180220141928 66 182 20.0 33.0 0.01 0.11 0.01 86 1013.7
20180220141836 66 202 18.0 33.0 0.01 0.11 0.01 85 1013.7
20180220141722 66 186 15.0 30.0 0.01 0.11 0.01 85 1013.5
20180220141629 66 232 15.0 32.0 0.00 0.10 0.00 84 1013.6
20180220141518 67 189 17.0 32.0 0.00 0.10 0.00 84 1013.6
20180220141428 67 177 16.0 32.0 0.00 0.10 0.00 84 1013.5
20180220141335 67 152 16.0 32.0 0.00 0.10 0.00 84 1013.6
20180220141222 67 141 18.0 32.0 0.00 0.10 0.00 83 1013.5
20180220141129 67 185 17.0 32.0 0.00 0.10 0.00 83 1013.6
20180220141016 67 158 19.0 32.0 0.00 0.10 0.00 82 1013.6
20180220140924 67 209 19.0 32.0 0.00 0.10 0.00 82 1013.5
20180220140835 67 227 17.0 32.0 0.00 0.10 0.00 82 1013.8
20180220140722 67 175 16.0 27.0 0.00 0.10 0.00 82 1013.4
20180220140629 67 127 15.0 27.0 0.00 0.10 0.00 82 1013.3
20180220140516 67 211 13.0 27.0 0.00 0.10 0.00 82 1013.5
20180220140424 67 236 15.0 27.0 0.00 0.10 0.00 82 1013.5
20180220140335 67 170 16.0 27.0 0.00 0.10 0.00 82 1013.3
20180220140222 67 190 17.0 27.0 0.00 0.10 0.00 82 1013.5
20180220140135 67 200 16.0 28.0 0.00 0.10 0.00 83 1013.5
20180220140051 67 199 15.0 28.0 0.00 0.10 0.00 83 1013.4
20180220135923 67 169 14.0 28.0 0.00 0.10 0.00 83 1013.4
20180220135830 67 198 16.0 28.0 0.00 0.10 0.00 83 1013.4
20180220135721 67 214 16.0 27.0 0.00 0.10 0.00 83 1013.3
20180220135629 67 176 16.0 27.0 0.00 0.10 0.00 83 1013.3
20180220135516 67 190 16.0 27.0 0.00 0.10 0.00 84 1013.2
20180220135423 67 229 15.0 28.0 0.00 0.10 0.00 84 1013.3
20180220135331 67 176 15.0 27.0 0.00 0.10 0.00 84 1013.3
20180220135223 67 180 13.0 27.0 0.00 0.10 0.00 84 1013.3
20180220135130 67 192 12.0 27.0 0.00 0.10 0.00 84 1013.3
20180220135017 67 236 13.0 27.0 0.00 0.10 0.00 84 1013.2
20180220134925 67 191 15.0 27.0 0.00 0.10 0.00 84 1013.2
20180220134832 67 187 16.0 27.0 0.00 0.10 0.00 84 1013.3
20180220134723 67 225 12.0 27.0 0.00 0.10 0.00 84 1013.3
20180220134630 67 176 12.0 27.0 0.00 0.10 0.00 84 1013.2
20180220134517 67 207 12.0 27.0 0.00 0.10 0.00 84 1013.0
20180220134425 67 186 12.0 27.0 0.00 0.10 0.00 84 1013.2
20180220134333 67 176 13.0 27.0 0.00 0.10 0.00 85 1013.2
20180220134220 66 174 12.0 22.0 0.00 0.10 0.00 85 1013.1
20180220134131 66 214 11.0 22.0 0.00 0.10 0.00 85 1013.2
20180220134019 66 217 11.0 22.0 0.00 0.10 0.00 85 1013.1
20180220133927 66 186 10.0 22.0 0.00 0.10 0.00 85 1013.2
20180220133835 66 192 10.0 22.0 0.00 0.10 0.00 85 1013.2
20180220133721 66 173 12.0 22.0 0.00 0.10 0.00 85 1013.2
20180220133632 66 188 14.0 22.0 0.00 0.10 0.00 86 1013.2
20180220133520 66 190 13.0 22.0 0.00 0.10 0.00 86 1013.3
20180220133428 66 192 11.0 18.0 0.00 0.10 0.00 86 1013.3
20180220133316 66 217 12.0 18.0 0.00 0.10 0.00 86 1013.2
20180220133224 66 209 11.0 17.0 0.00 0.10 0.00 86 1013.3
20180220133131 66 184 10.0 17.0 0.00 0.10 0.00 86 1013.3
20180220133023 66 170 11.0 17.0 0.00 0.10 0.00 86 1013.3
20180220132932 66 213 10.0 17.0 0.00 0.10 0.00 87 1013.3
20180220132818 66 203 8.0 19.0 0.00 0.10 0.00 87 1013.3
20180220132726 66 202 9.0 19.0 0.00 0.10 0.00 87 1013.2
20180220132633 66 185 10.0 19.0 0.00 0.10 0.00 87 1013.2
20180220132524 66 241 12.0 19.0 0.00 0.10 0.00 87 1013.2
20180220132433 66 194 11.0 19.0 0.00 0.10 0.00 87 1013.1
20180220132320 65 178 9.0 16.0 0.00 0.10 0.00 87 1013.1
20180220132228 65 200 9.0 16.0 0.00 0.10 0.00 87 1013.1
20180220132135 65 227 9.0 16.0 0.00 0.10 0.00 87 1013.0
20180220132027 65 204 11.0 16.0 0.00 0.10 0.00 87 1013.0
20180220131936 65 200 10.0 17.0 0.00 0.10 0.00 87 1013.0
20180220131822 65 217 8.0 17.0 0.00 0.10 0.00 87 1012.9
20180220131730 65 191 8.0 17.0 0.00 0.10 0.00 87 1012.9
20180220131617 65 236 8.0 17.0 0.00 0.10 0.00 87 1012.9
20180220131525 65 174 8.0 15.0 0.00 0.10 0.00 87 1012.8
20180220131417 65 202 7.0 11.0 0.00 0.10 0.00 87 1012.9
20180220131324 65 196 8.0 11.0 0.00 0.10 0.00 87 1012.9
20180220131231 65 180 8.0 11.0 0.00 0.10 0.00 87 1012.8
20180220131118 65 178 7.0 13.0 0.00 0.10 0.00 87 1012.8
20180220131025 65 178 7.0 11.0 0.00 0.10 0.00 87 1012.7
20180220130917 65 159 7.0 11.0 0.00 0.10 0.00 87 1012.6
20180220130825 65 200 6.0 11.0 0.00 0.10 0.00 87 1012.7
20180220130732 65 196 7.0 14.0 0.00 0.10 0.00 87 1012.6
20180220130620 65 177 8.0 14.0 0.00 0.10 0.00 88 1012.5
20180220130527 65 142 7.0 14.0 0.00 0.10 0.00 88 1012.5
20180220130419 65 165 8.0 14.0 0.00 0.10 0.00 88 1012.5
20180220130327 65 132 7.0 14.0 0.00 0.10 0.00 88 1012.4
20180220130233 65 194 5.0 14.0 0.00 0.10 0.00 87 1012.4
20180220130122 65 196 7.0 14.0 0.00 0.10 0.00 87 1012.4
20180220130040 65 188 8.0 13.0 0.00 0.10 0.00 88 1012.4
20180220125935 65 143 8.0 13.0 0.00 0.10 0.00 88 1012.5
20180220125826 65 137 8.0 14.0 0.00 0.10 0.00 88 1012.5
20180220125734 65 124 8.0 22.0 0.00 0.10 0.00 88 1012.4
20180220125621 65 150 5.0 22.0 0.00 0.10 0.00 88 1012.4
20180220125528 65 217 6.0 22.0 0.00 0.10 0.00 88 1012.4
20180220125416 65 148 8.0 22.0 0.00 0.10 0.00 88 1012.4
20180220125328 65 223 7.0 22.0 0.00 0.10 0.00 88 1012.4
20180220125216 65 172 8.0 22.0 0.00 0.10 0.00 88 1012.4
20180220125124 65 169 11.0 22.0 0.00 0.10 0.00 88 1012.3
20180220125031 65 173 13.0 22.0 0.00 0.10 0.00 88 1012.3
20180220124919 65 155 12.0 22.0 0.00 0.10 0.00 88 1012.2
20180220124827 65 148 10.0 18.0 0.00 0.10 0.00 88 1012.3
20180220124719 65 177 10.0 18.0 0.00 0.10 0.00 88 1012.3
20180220124627 65 213 11.0 19.0 0.00 0.10 0.00 88 1012.3
20180220124535 65 174 10.0 17.0 0.00 0.10 0.00 88 1012.3
20180220124422 65 186 7.0 17.0 0.00 0.10 0.00 88 1012.3
20180220124330 65 103 7.0 17.0 0.00 0.10 0.00 88 1012.3
20180220124221 65 193 9.0 17.0 0.00 0.10 0.00 89 1012.3
20180220124128 65 155 8.0 17.0 0.00 0.10 0.00 88 1012.3
20180220124035 64 180 7.0 19.0 0.00 0.10 0.00 89 1012.3
20180220123923 64 186 8.0 19.0 0.00 0.10 0.00 89 1012.3
20180220123831 64 215 8.0 19.0 0.00 0.10 0.00 88 1012.4
20180220123722 64 227 9.0 19.0 0.00 0.10 0.00 88 1012.5
20180220123630 64 155 9.0 19.0 0.00 0.10 0.00 89 1012.5
20180220123517 64 180 10.0 19.0 0.00 0.10 0.00 89 1012.4
20180220123425 64 121 11.0 19.0 0.00 0.10 0.00 89 1012.5
20180220123332 64 180 11.0 19.0 0.00 0.10 0.00 89 1012.5
20180220123219 64 188 10.0 19.0 0.00 0.10 0.00 89 1012.4
20180220123131 64 180 8.0 19.0 0.00 0.10 0.00 89 1012.4
20180220123018 64 190 8.0 21.0 0.00 0.10 0.00 89 1012.4
20180220122927 64 178 9.0 21.0 0.00 0.10 0.00 89 1012.4
20180220122833 64 159 9.0 21.0 0.00 0.10 0.00 89 1012.5
20180220122720 64 190 9.0 21.0 0.00 0.10 0.00 89 1012.5
20180220122631 64 145 9.0 21.0 0.00 0.10 0.00 89 1012.5
20180220122519 64 176 10.0 21.0 0.00 0.10 0.00 89 1012.5
20180220122426 64 210 11.0 21.0 0.00 0.10 0.00 89 1012.5
20180220122334 64 133 10.0 21.0 0.00 0.10 0.00 89 1012.5
20180220122221 64 150 10.0 15.0 0.00 0.10 0.00 89 1012.6
20180220122129 64 171 10.0 17.0 0.00 0.10 0.00 89 1012.5
20180220122022 64 154 9.0 15.0 0.00 0.10 0.00 89 1012.6
20180220121930 64 129 10.0 15.0 0.00 0.10 0.00 89 1012.5
20180220121818 64 190 8.0 15.0 0.00 0.10 0.00 89 1012.5
20180220121725 64 193 9.0 15.0 0.00 0.10 0.00 89 1012.5
20180220121632 64 176 9.0 17.0 0.00 0.10 0.00 89 1012.5
20180220121523 64 134 9.0 13.0 0.00 0.10 0.00 89 1012.5
20180220121430 64 191 9.0 13.0 0.00 0.10 0.00 89 1012.4
20180220121319 64 192 8.0 12.0 0.00 0.10 0.00 89 1012.4
20180220121226 64 183 8.0 17.0 0.00 0.10 0.00 89 1012.5
20180220121134 64 150 9.0 17.0 0.00 0.10 0.00 89 1012.4
20180220121026 64 219 8.0 17.0 0.00 0.10 0.00 89 1012.5
20180220120934 64 151 8.0 17.0 0.00 0.10 0.00 89 1012.5
20180220120822 64 188 9.0 17.0 0.00 0.10 0.00 89 1012.5
20180220120730 64 149 9.0 17.0 0.00 0.10 0.00 89 1012.5
20180220120617 64 203 9.0 17.0 0.00 0.10 0.00 89 1012.6
20180220120526 64 150 8.0 17.0 0.00 0.10 0.00 89 1012.6
20180220120418 64 188 9.0 14.0 0.00 0.10 0.00 89 1012.5
20180220120326 64 162 9.0 14.0 0.00 0.10 0.00 89 1012.5
20180220120233 64 161 9.0 15.0 0.00 0.10 0.00 89 1012.6
20180220120120 64 171 10.0 15.0 0.00 0.10 0.00 89 1012.6
20180220120038 64 144 10.0 16.0 0.00 0.10 0.00 89 1012.6
20180220115916 64 149 9.0 15.0 0.00 0.10 0.00 89 1012.5
20180220115823 64 173 9.0 15.0 0.00 0.10 0.00 89 1012.6
20180220115731 64 198 10.0 15.0 0.00 0.10 0.00 89 1012.6
20180220115618 64 133 10.0 15.0 0.00 0.10 0.00 89 1012.6
20180220115525 64 156 9.0 14.0 0.00 0.10 0.00 89 1012.7
20180220115416 63 178 10.0 16.0 0.00 0.10 0.00 89 1012.6
20180220115324 63 182 9.0 16.0 0.00 0.10 0.00 89 1012.8
20180220115231 63 175 10.0 18.0 0.00 0.10 0.00 89 1012.8
20180220115118 63 167 10.0 18.0 0.00 0.10 0.00 89 1012.8
20180220115026 63 161 10.0 18.0 0.00 0.10 0.00 89 1012.8
20180220114934 63 136 8.0 18.0 0.00 0.10 0.00 89 1012.8
20180220114826 63 171 7.0 18.0 0.00 0.10 0.00 89 1012.9
20180220114733 63 154 7.0 18.0 0.00 0.10 0.00 89 1012.9
20180220114620 63 173 9.0 18.0 0.00 0.10 0.00 89 1012.9
20180220114528 63 190 10.0 18.0 0.00 0.10 0.00 89 1012.9
20180220114416 63 190 10.0 18.0 0.00 0.10 0.00 89 1012.9
20180220114328 63 173 8.0 16.0 0.00 0.10 0.00 89 1012.9
20180220114216 63 157 8.0 16.0 0.00 0.10 0.00 89 1012.9
20180220114123 63 178 9.0 16.0 0.00 0.10 0.00 89 1012.9
20180220114031 63 178 10.0 16.0 0.00 0.10 0.00 89 1012.9
20180220113919 63 148 9.0 16.0 0.00 0.10 0.00 89 1012.9
20180220113826 63 163 8.0 12.0 0.00 0.10 0.00 89 1012.9
20180220113717 63 154 8.0 15.0 0.00 0.10 0.00 88 1013.0
20180220113624 63 192 8.0 15.0 0.00 0.10 0.00 88 1013.0
20180220113532 63 182 9.0 15.0 0.00 0.10 0.00 88 1013.0
20180220113420 63 158 8.0 14.0 0.00 0.10 0.00 88 1013.1
20180220113328 64 178 9.0 14.0 0.00 0.10 0.00 88 1013.0
20180220113220 64 189 10.0 14.0 0.00 0.10 0.00 88 1013.1
20180220113127 64 152 10.0 14.0 0.00 0.10 0.00 88 1013.0
20180220113034 64 133 9.0 15.0 0.00 0.10 0.00 88 1013.0
20180220112922 64 182 8.0 14.0 0.00 0.10 0.00 88 1012.9
20180220112830 64 167 8.0 14.0 0.00 0.10 0.00 88 1012.9
20180220112722 64 163 8.0 14.0 0.00 0.10 0.00 88 1012.9
20180220112629 64 162 8.0 11.0 0.00 0.10 0.00 88 1013.0
20180220112516 64 190 8.0 11.0 0.00 0.10 0.00 88 1012.9
20180220112423 64 170 8.0 13.0 0.00 0.10 0.00 88 1012.8
20180220112331 64 180 7.0 16.0 0.00 0.10 0.00 88 1012.8
20180220112219 64 175 8.0 16.0 0.00 0.10 0.00 88 1012.8
20180220112131 64 178 8.0 16.0 0.00 0.10 0.00 88 1012.8
20180220112019 64 148 8.0 16.0 0.00 0.10 0.00 88 1012.8
20180220111927 64 181 9.0 16.0 0.00 0.10 0.00 88 1012.8
20180220111834 64 180 8.0 16.0 0.00 0.10 0.00 88 1012.8
20180220111721 64 232 7.0 16.0 0.00 0.10 0.00 88 1012.8
20180220111633 64 211 9.0 16.0 0.00 0.10 0.00 88 1012.8
20180220111521 64 141 10.0 16.0 0.00 0.10 0.00 88 1012.8
20180220111428 64 173 9.0 14.0 0.00 0.10 0.00 88 1012.8
20180220111335 64 227 9.0 14.0 0.00 0.10 0.00 88 1012.7
20180220111223 64 177 8.0 14.0 0.00 0.10 0.00 88 1012.7
20180220111131 64 194 8.0 14.0 0.00 0.10 0.00 88 1012.6
20180220111023 64 146 8.0 14.0 0.00 0.10 0.00 88 1012.7
20180220110931 64 214 8.0 14.0 0.00 0.10 0.00 88 1012.6
20180220110819 64 187 9.0 15.0 0.00 0.10 0.00 88 1012.7
20180220110727 64 192 9.0 17.0 0.00 0.10 0.00 88 1012.7
20180220110634 64 205 9.0 17.0 0.00 0.10 0.00 88 1012.7
20180220110525 64 209 8.0 17.0 0.00 0.10 0.00 87 1012.7
20180220110433 64 155 6.0 17.0 0.00 0.10 0.00 87 1012.7
20180220110320 64 198 5.0 17.0 0.00 0.10 0.00 87 1012.7
20180220110227 64 263 7.0 17.0 0.00 0.10 0.00 87 1012.8
20180220110134 64 213 8.0 17.0 0.00 0.10 0.00 87 1012.8
20180220110036 64 148 9.0 20.0 0.00 0.10 0.00 87 1012.8
20180220105930 64 161 10.0 20.0 0.00 0.10 0.00 87 1012.9
20180220105819 64 194 8.0 20.0 0.00 0.10 0.00 87 1012.8
20180220105727 64 154 8.0 20.0 0.00 0.10 0.00 87 1012.9
20180220105634 64 213 9.0 20.0 0.00 0.10 0.00 87 1012.9
20180220105522 64 134 7.0 20.0 0.00 0.10 0.00 86 1012.8
20180220105434 64 127 8.0 20.0 0.00 0.10 0.00 86 1012.9
20180220105322 64 194 10.0 20.0 0.00 0.10 0.00 86 1012.8
20180220105229 64 180 10.0 19.0 0.00 0.10 0.00 86 1012.9
20180220105117 64 187 10.0 18.0 0.00 0.10 0.00 86 1012.8
20180220105024 64 157 10.0 18.0 0.00 0.10 0.00 85 1012.9
20180220104916 64 167 9.0 18.0 0.00 0.10 0.00 85 1012.8
20180220104823 64 188 7.0 17.0 0.00 0.10 0.00 85 1012.8
20180220104731 64 196 7.0 18.0 0.00 0.10 0.00 85 1012.8
20180220104618 64 251 7.0 18.0 0.00 0.10 0.00 84 1012.8
20180220104525 65 186 8.0 18.0 0.00 0.10 0.00 84 1012.8
20180220104417 65 174 9.0 18.0 0.00 0.10 0.00 84 1012.8
20180220104325 65 161 10.0 18.0 0.00 0.10 0.00 84 1012.8
20180220104233 65 191 11.0 18.0 0.00 0.10 0.00 84 1012.7
20180220104120 65 171 8.0 18.0 0.00 0.10 0.00 83 1012.8
20180220104027 65 178 9.0 18.0 0.00 0.10 0.00 83 1012.8
20180220103935 65 200 10.0 18.0 0.00 0.10 0.00 83 1012.7
20180220103826 65 248 8.0 15.0 0.00 0.10 0.00 83 1012.8
20180220103734 65 133 8.0 15.0 0.00 0.10 0.00 83 1012.7
20180220103621 65 208 11.0 15.0 0.00 0.10 0.00 83 1012.7
20180220103528 65 202 10.0 17.0 0.00 0.10 0.00 83 1012.7
20180220103416 65 151 9.0 17.0 0.00 0.10 0.00 83 1012.7
20180220103328 65 259 9.0 17.0 0.00 0.10 0.00 83 1012.7
20180220103235 65 174 9.0 17.0 0.00 0.10 0.00 83 1012.6
20180220103122 65 162 9.0 17.0 0.00 0.10 0.00 83 1012.7
20180220103031 65 208 8.0 17.0 0.00 0.10 0.00 83 1012.7
20180220102918 65 186 7.0 17.0 0.00 0.10 0.00 82 1012.6
20180220102826 65 229 8.0 17.0 0.00 0.10 0.00 82 1012.6
20180220102801 65 94 8.0 17.0 0.00 0.10 0.00 82 1012.6
20180220102522 65 163 9.0 16.0 0.00 0.10 0.00 82 1012.6
20180220102430 65 163 9.0 16.0 0.00 0.10 0.00 82 1012.6
20180220102318 65 184 9.0 16.0 0.00 0.10 0.00 82 1012.6
20180220102231 65 138 9.0 16.0 0.00 0.10 0.00 82 1012.6
20180220102117 65 183 11.0 16.0 0.00 0.10 0.00 82 1012.6
20180220102025 65 178 11.0 16.0 0.00 0.10 0.00 82 1012.6
20180220101933 65 123 11.0 15.0 0.00 0.10 0.00 82 1012.5
20180220101820 65 182 8.0 15.0 0.00 0.10 0.00 82 1012.5
20180220101727 65 216 7.0 17.0 0.00 0.10 0.00 82 1012.6
20180220101619 65 175 8.0 17.0 0.00 0.10 0.00 82 1012.5
20180220101527 65 189 7.0 17.0 0.00 0.10 0.00 82 1012.5
20180220101433 65 173 9.0 17.0 0.00 0.10 0.00 82 1012.5
20180220101321 65 192 10.0 17.0 0.00 0.10 0.00 82 1012.5
20180220101229 65 144 9.0 18.0 0.00 0.10 0.00 82 1012.6
20180220101117 65 141 9.0 18.0 0.00 0.10 0.00 82 1012.6
20180220101029 65 171 9.0 18.0 0.00 0.10 0.00 82 1012.7
20180220100917 65 148 8.0 18.0 0.00 0.10 0.00 81 1012.6
20180220100824 65 166 7.0 18.0 0.00 0.10 0.00 81 1012.6
20180220100732 65 210 8.0 18.0 0.00 0.10 0.00 81 1012.6
20180220100619 65 161 10.0 18.0 0.00 0.10 0.00 81 1012.5
20180220100531 65 175 11.0 18.0 0.00 0.10 0.00 81 1012.6
20180220100419 65 167 11.0 18.0 0.00 0.10 0.00 81 1012.6
20180220100328 65 208 10.0 18.0 0.00 0.10 0.00 81 1012.6
20180220100235 65 148 9.0 18.0 0.00 0.10 0.00 81 1012.7
20180220100123 65 170 10.0 18.0 0.00 0.10 0.00 81 1012.7
20180220100041 65 182 11.0 18.0 0.00 0.10 0.00 81 1012.7
20180220095919 65 138 10.0 18.0 0.00 0.10 0.00 81 1012.6
20180220095826 65 175 8.0 18.0 0.00 0.10 0.00 81 1012.7
20180220095734 65 149 7.0 16.0 0.00 0.10 0.00 81 1012.7
20180220095621 65 145 7.0 16.0 0.00 0.10 0.00 81 1012.7
20180220095529 65 139 8.0 16.0 0.00 0.10 0.00 81 1012.7
20180220095421 65 221 10.0 16.0 0.00 0.10 0.00 81 1012.8
20180220095328 65 193 9.0 16.0 0.00 0.10 0.00 81 1012.8
20180220095216 65 202 8.0 16.0 0.00 0.10 0.00 81 1012.7
20180220095123 65 165 7.0 16.0 0.00 0.10 0.00 81 1012.8
20180220095030 65 211 7.0 15.0 0.00 0.10 0.00 80 1012.8
20180220094922 65 134 7.0 15.0 0.00 0.10 0.00 80 1012.8
20180220094829 65 213 8.0 15.0 0.00 0.10 0.00 80 1012.8
20180220094716 65 187 9.0 15.0 0.00 0.10 0.00 80 1012.8
20180220094620 65 168 9.0 16.0 0.00 0.10 0.00 80 1012.8
20180220094528 65 201 8.0 15.0 0.00 0.10 0.00 80 1012.8
20180220094435 65 171 9.0 15.0 0.00 0.10 0.00 80 1012.8
20180220094327 65 207 10.0 15.0 0.00 0.10 0.00 80 1012.7
20180220094234 65 216 11.0 18.0 0.00 0.10 0.00 80 1012.8
20180220094121 65 191 10.0 18.0 0.00 0.10 0.00 80 1012.6
20180220094029 65 71 8.0 17.0 0.00 0.10 0.00 80 1012.7
20180220093917 65 194 9.0 17.0 0.00 0.10 0.00 80 1012.7
20180220093828 65 184 9.0 17.0 0.00 0.10 0.00 80 1012.7
20180220093735 65 154 10.0 17.0 0.00 0.10 0.00 80 1012.6
20180220093621 65 220 10.0 17.0 0.00 0.10 0.00 80 1012.6
20180220093527 65 155 10.0 17.0 0.00 0.10 0.00 80 1012.6
20180220093432 65 150 8.0 17.0 0.00 0.10 0.00 80 1012.6
20180220093318 65 184 8.0 17.0 0.00 0.10 0.00 80 1012.6
20180220093224 65 171 9.0 17.0 0.00 0.10 0.00 80 1012.6
20180220093130 65 168 9.0 15.0 0.00 0.10 0.00 80 1012.5
20180220093032 65 178 8.0 15.0 0.00 0.10 0.00 80 1012.5
20180220092919 65 178 8.0 15.0 0.00 0.10 0.00 79 1012.5
20180220092825 65 182 10.0 15.0 0.00 0.10 0.00 79 1012.4
20180220092729 65 234 10.0 15.0 0.00 0.10 0.00 79 1012.4
20180220092618 65 170 9.0 16.0 0.00 0.10 0.00 79 1012.4
20180220092524 65 159 9.0 14.0 0.00 0.10 0.00 79 1012.4
20180220092428 65 188 8.0 14.0 0.00 0.10 0.00 79 1012.4
20180220092335 66 221 7.0 14.0 0.00 0.10 0.00 79 1012.4
20180220092222 66 160 8.0 14.0 0.00 0.10 0.00 79 1012.4
20180220092133 66 195 9.0 14.0 0.00 0.10 0.00 78 1012.4
20180220092017 66 171 8.0 17.0 0.00 0.10 0.00 78 1012.4
20180220091936 66 148 8.0 17.0 0.00 0.10 0.00 78 1012.4
20180220091627 66 194 9.0 21.0 0.00 0.10 0.00 78 1012.4
20180220091427 66 173 9.0 21.0 0.00 0.10 0.00 78 1012.3
20180220091335 66 173 9.0 21.0 0.00 0.10 0.00 78 1012.3
20180220091222 66 206 10.0 21.0 0.00 0.10 0.00 78 1012.4
20180220091130 66 138 9.0 21.0 0.00 0.10 0.00 78 1012.4
20180220091021 66 167 10.0 21.0 0.00 0.10 0.00 77 1012.4
20180220090929 66 172 12.0 21.0 0.00 0.10 0.00 77 1012.4
20180220090817 66 123 12.0 21.0 0.00 0.10 0.00 77 1012.4
20180220090724 66 142 9.0 18.0 0.00 0.10 0.00 77 1012.4
20180220090631 66 118 8.0 18.0 0.00 0.10 0.00 77 1012.4
20180220090522 66 166 8.0 18.0 0.00 0.10 0.00 77 1012.4
20180220090430 66 155 9.0 18.0 0.00 0.10 0.00 77 1012.4
20180220090318 66 202 11.0 19.0 0.00 0.10 0.00 77 1012.4
20180220090225 66 191 10.0 18.0 0.00 0.10 0.00 77 1012.3
20180220090132 66 218 9.0 18.0 0.00 0.10 0.00 77 1012.4
20180220090046 66 207 9.0 18.0 0.00 0.10 0.00 77 1012.4
20180220085923 66 181 12.0 18.0 0.00 0.10 0.00 77 1012.4
20180220085822 66 182 13.0 18.0 0.00 0.10 0.00 77 1012.3
20180220085726 66 209 12.0 18.0 0.00 0.10 0.00 77 1012.4
20180220085631 66 259 11.0 18.0 0.00 0.10 0.00 77 1012.4
20180220085528 66 108 9.0 18.0 0.00 0.10 0.00 77 1012.4
20180220085435 66 317 8.0 22.0 0.00 0.10 0.00 76 1012.4
20180220085319 66 188 7.0 22.0 0.00 0.10 0.00 76 1012.5
20180220085220 66 242 10.0 22.0 0.00 0.10 0.00 76 1012.5
20180220085126 66 274 12.0 22.0 0.00 0.10 0.00 76 1012.6
20180220085032 66 207 11.0 22.0 0.00 0.10 0.00 76 1012.4
20180220084916 66 176 11.0 22.0 0.00 0.10 0.00 76 1012.5
20180220084821 66 184 12.0 22.0 0.00 0.10 0.00 76 1012.5
20180220084731 66 216 12.0 22.0 0.00 0.10 0.00 76 1012.5
20180220084634 66 172 13.0 22.0 0.00 0.10 0.00 76 1012.5
20180220084521 66 190 11.0 22.0 0.00 0.10 0.00 76 1012.4
20180220084428 66 136 11.0 22.0 0.00 0.10 0.00 76 1012.4
20180220084335 66 215 12.0 22.0 0.00 0.10 0.00 76 1012.4
20180220084227 66 221 14.0 22.0 0.00 0.10 0.00 76 1012.3
20180220084133 66 202 15.0 22.0 0.00 0.10 0.00 76 1012.3
20180220084020 66 246 14.0 21.0 0.00 0.10 0.00 76 1012.4
20180220083928 66 214 13.0 25.0 0.00 0.10 0.00 76 1012.3
20180220083835 66 186 10.0 25.0 0.00 0.10 0.00 76 1012.4
20180220083723 66 215 12.0 25.0 0.00 0.10 0.00 76 1012.3
20180220083634 66 153 12.0 25.0 0.00 0.10 0.00 76 1012.3
20180220083522 66 208 11.0 25.0 0.00 0.10 0.00 75 1012.2
20180220083429 66 211 13.0 25.0 0.00 0.10 0.00 75 1012.3
20180220083316 66 233 12.0 25.0 0.00 0.10 0.00 75 1012.1
20180220083223 66 224 12.0 25.0 0.00 0.10 0.00 75 1012.4
20180220083134 66 193 13.0 25.0 0.00 0.10 0.00 75 1012.4
20180220083021 66 201 15.0 25.0 0.00 0.10 0.00 75 1012.4
20180220082929 66 192 14.0 25.0 0.00 0.10 0.00 75 1012.3
20180220082817 66 163 12.0 24.0 0.00 0.10 0.00 75 1012.3
20180220082724 66 213 14.0 24.0 0.00 0.10 0.00 75 1012.4
20180220082616 66 182 13.0 25.0 0.00 0.10 0.00 75 1012.3
20180220082523 66 150 13.0 26.0 0.00 0.10 0.00 75 1012.3
20180220082428 66 221 12.0 26.0 0.00 0.10 0.00 75 1012.3
20180220082331 66 177 13.0 26.0 0.00 0.10 0.00 75 1012.3
20180220082230 66 127 12.0 26.0 0.00 0.10 0.00 75 1012.3
20180220082116 66 196 13.0 26.0 0.00 0.10 0.00 75 1012.3
20180220082027 66 149 13.0 26.0 0.00 0.10 0.00 75 1012.3
20180220081932 66 159 14.0 26.0 0.00 0.10 0.00 75 1012.3
20180220081816 66 148 13.0 26.0 0.00 0.10 0.00 75 1012.3
20180220081718 66 197 13.0 28.0 0.00 0.10 0.00 75 1012.3
20180220081624 66 202 12.0 27.0 0.00 0.10 0.00 75 1012.1
20180220081526 66 192 11.0 26.0 0.00 0.10 0.00 75 1012.3
20180220081417 66 255 14.0 26.0 0.00 0.10 0.00 75 1012.2
20180220081324 66 235 12.0 26.0 0.00 0.10 0.00 75 1012.2
20180220081231 66 198 11.0 26.0 0.00 0.10 0.00 74 1012.2
20180220081119 66 202 13.0 26.0 0.00 0.10 0.00 74 1012.2
20180220081026 66 146 17.0 26.0 0.00 0.10 0.00 74 1012.3
20180220080918 66 166 17.0 26.0 0.00 0.10 0.00 74 1012.1
20180220080825 66 194 15.0 25.0 0.00 0.10 0.00 74 1012.2
20180220080733 66 178 16.0 25.0 0.00 0.10 0.00 74 1012.3
20180220080621 66 130 14.0 25.0 0.00 0.10 0.00 74 1012.3
20180220080529 66 188 13.0 25.0 0.00 0.10 0.00 74 1012.2
20180220080416 66 207 13.0 22.0 0.00 0.10 0.00 74 1012.2
20180220080328 66 242 12.0 22.0 0.00 0.10 0.00 74 1012.2
20180220080216 66 237 14.0 22.0 0.00 0.10 0.00 74 1012.2
20180220080124 66 177 14.0 22.0 0.00 0.10 0.00 74 1012.0
20180220080042 67 151 11.0 22.0 0.00 0.10 0.00 74 1012.2
20180220075916 67 190 11.0 22.0 0.00 0.10 0.00 73 1012.1
20180220075828 67 229 14.0 22.0 0.00 0.10 0.00 73 1012.1
20180220075716 67 202 15.0 23.0 0.00 0.10 0.00 73 1012.0
20180220075625 67 196 13.0 23.0 0.00 0.10 0.00 73 1012.1
20180220075532 67 247 12.0 23.0 0.00 0.10 0.00 73 1011.9
20180220075420 67 168 14.0 23.0 0.00 0.10 0.00 73 1012.0
20180220075327 67 185 14.0 23.0 0.00 0.10 0.00 73 1012.0
20180220075219 67 209 11.0 25.0 0.00 0.10 0.00 73 1012.0
20180220075127 67 209 11.0 23.0 0.00 0.10 0.00 73 1012.1
20180220075034 67 232 11.0 23.0 0.00 0.10 0.00 73 1012.0
20180220074922 67 197 11.0 23.0 0.00 0.10 0.00 73 1011.9
20180220074829 67 173 11.0 23.0 0.00 0.10 0.00 72 1011.9
20180220074720 67 169 13.0 23.0 0.00 0.10 0.00 72 1012.0
20180220074627 67 178 14.0 23.0 0.00 0.10 0.00 72 1012.0
20180220074516 67 132 16.0 23.0 0.00 0.10 0.00 72 1011.9
20180220074424 67 226 16.0 27.0 0.00 0.10 0.00 72 1012.0
20180220074331 67 222 16.0 27.0 0.00 0.10 0.00 72 1011.8
20180220074223 67 216 11.0 27.0 0.00 0.10 0.00 72 1011.9
20180220074130 67 206 11.0 27.0 0.00 0.10 0.00 72 1011.9
20180220074019 67 190 15.0 27.0 0.00 0.10 0.00 72 1011.9
20180220073927 67 196 15.0 27.0 0.00 0.10 0.00 71 1011.9
20180220073835 67 202 14.0 27.0 0.00 0.10 0.00 71 1011.9
20180220073722 67 196 15.0 27.0 0.00 0.10 0.00 71 1011.9
20180220073634 67 242 16.0 27.0 0.00 0.10 0.00 71 1011.8
20180220073521 67 227 15.0 26.0 0.00 0.10 0.00 71 1012.0
20180220073429 67 214 15.0 26.0 0.00 0.10 0.00 71 1011.9
20180220073316 67 220 15.0 26.0 0.00 0.10 0.00 71 1012.0
20180220073224 67 188 16.0 26.0 0.00 0.10 0.00 71 1012.0
20180220073135 67 256 16.0 26.0 0.00 0.10 0.00 71 1011.8
20180220073022 67 225 15.0 31.0 0.00 0.10 0.00 70 1011.8
20180220072931 67 243 15.0 31.0 0.00 0.10 0.00 70 1011.9
20180220072818 67 233 13.0 31.0 0.00 0.10 0.00 70 1011.9
20180220072725 67 192 16.0 31.0 0.00 0.10 0.00 70 1011.8
20180220072617 67 227 16.0 31.0 0.00 0.10 0.00 70 1011.8
20180220072524 67 197 15.0 31.0 0.00 0.10 0.00 70 1011.7
20180220072432 67 180 16.0 31.0 0.00 0.10 0.00 70 1011.6
20180220072320 67 192 20.0 31.0 0.00 0.10 0.00 70 1011.6
20180220072227 67 201 18.0 31.0 0.00 0.10 0.00 70 1011.7
20180220072116 67 223 16.0 30.0 0.00 0.10 0.00 69 1011.6
20180220072028 67 188 18.0 30.0 0.00 0.10 0.00 69 1011.6
20180220071916 67 186 18.0 32.0 0.00 0.10 0.00 69 1011.6
20180220071823 67 176 16.0 30.0 0.00 0.10 0.00 69 1011.6
20180220071731 67 185 16.0 30.0 0.00 0.10 0.00 69 1011.6
20180220071619 67 212 16.0 30.0 0.00 0.10 0.00 69 1011.3
20180220071530 67 186 14.0 30.0 0.00 0.10 0.00 69 1011.6
20180220071418 67 200 17.0 30.0 0.00 0.10 0.00 68 1011.6
20180220071326 67 177 20.0 31.0 0.00 0.10 0.00 69 1011.6
20180220071233 67 248 18.0 30.0 0.00 0.10 0.00 69 1011.8
20180220071121 67 229 13.0 31.0 0.00 0.10 0.00 68 1011.5
20180220071027 67 251 13.0 31.0 0.00 0.10 0.00 68 1011.6
20180220070920 67 183 13.0 31.0 0.00 0.10 0.00 68 1011.6
20180220070827 67 220 12.0 32.0 0.00 0.10 0.00 68 1011.5
20180220070716 68 170 14.0 31.0 0.00 0.10 0.00 68 1011.3
20180220070624 68 186 17.0 31.0 0.00 0.10 0.00 67 1011.4
20180220070531 68 172 17.0 31.0 0.00 0.10 0.00 67 1011.5
20180220070423 67 223 18.0 31.0 0.00 0.10 0.00 67 1011.3
20180220070330 67 196 20.0 31.0 0.00 0.10 0.00 67 1011.5
20180220070217 67 242 16.0 31.0 0.00 0.10 0.00 67 1011.5
20180220070125 67 219 17.0 31.0 0.00 0.10 0.00 67 1011.5
20180220070043 68 184 16.0 31.0 0.00 0.10 0.00 67 1011.5
20180220065924 67 202 16.0 31.0 0.00 0.10 0.00 67 1011.6
20180220065828 67 190 16.0 31.0 0.00 0.10 0.00 67 1011.6
20180220065735 67 185 14.0 31.0 0.00 0.10 0.00 66 1011.6
20180220065623 67 200 13.0 31.0 0.00 0.10 0.00 66 1011.7
20180220065531 67 215 17.0 31.0 0.00 0.10 0.00 66 1011.6
20180220065420 67 236 16.0 31.0 0.00 0.10 0.00 66 1011.7
20180220065331 67 203 13.0 24.0 0.00 0.10 0.00 66 1011.8
20180220065219 67 182 12.0 28.0 0.00 0.10 0.00 66 1011.8
20180220065125 67 188 14.0 28.0 0.00 0.10 0.00 66 1011.8
20180220065032 67 188 15.0 28.0 0.00 0.10 0.00 66 1011.7
20180220064920 67 155 16.0 28.0 0.00 0.10 0.00 65 1011.8
20180220064830 67 173 15.0 32.0 0.00 0.10 0.00 65 1011.8
20180220064718 67 132 14.0 32.0 0.00 0.10 0.00 65 1011.9
20180220064626 67 207 14.0 32.0 0.00 0.10 0.00 65 1011.8
20180220064533 68 190 17.0 32.0 0.00 0.10 0.00 65 1011.8
20180220064420 68 177 19.0 32.0 0.00 0.10 0.00 65 1011.8
20180220064328 68 209 16.0 32.0 0.00 0.10 0.00 65 1011.7
20180220064219 68 211 16.0 32.0 0.00 0.10 0.00 65 1011.8
20180220064126 68 144 19.0 32.0 0.00 0.10 0.00 64 1011.7
20180220064033 68 193 17.0 32.0 0.00 0.10 0.00 64 1011.8
20180220063921 68 215 15.0 33.0 0.00 0.10 0.00 64 1011.8
20180220063829 68 179 17.0 33.0 0.00 0.10 0.00 64 1011.8
20180220063720 68 196 18.0 33.0 0.00 0.10 0.00 64 1011.8
20180220063628 68 190 19.0 33.0 0.00 0.10 0.00 64 1011.6
20180220063516 68 236 18.0 33.0 0.00 0.10 0.00 64 1011.7
20180220063425 68 173 18.0 33.0 0.00 0.10 0.00 64 1011.8
20180220063332 68 169 17.0 33.0 0.00 0.10 0.00 64 1011.7
20180220063224 68 201 13.0 33.0 0.00 0.10 0.00 64 1011.8
20180220063132 68 163 13.0 33.0 0.00 0.10 0.00 64 1011.7
20180220063019 68 223 13.0 33.0 0.00 0.10 0.00 64 1011.7
20180220062927 68 133 15.0 33.0 0.00 0.10 0.00 64 1011.7
20180220062834 68 202 17.0 33.0 0.00 0.10 0.00 64 1011.6
20180220062722 68 186 17.0 33.0 0.00 0.10 0.00 64 1011.6
20180220062634 68 195 17.0 33.0 0.00 0.10 0.00 64 1011.6
20180220062520 68 214 18.0 33.0 0.00 0.10 0.00 64 1011.6
20180220062429 68 236 18.0 33.0 0.00 0.10 0.00 64 1011.5
20180220062316 68 170 17.0 32.0 0.00 0.10 0.00 64 1011.6
20180220062224 68 148 18.0 32.0 0.00 0.10 0.00 64 1011.6
20180220062115 68 197 17.0 32.0 0.00 0.10 0.00 63 1011.4
20180220062023 68 257 16.0 32.0 0.00 0.10 0.00 63 1011.5
20180220061930 68 169 16.0 32.0 0.00 0.10 0.00 63 1011.3
20180220061818 68 177 18.0 32.0 0.00 0.10 0.00 63 1011.3
20180220061725 68 200 20.0 32.0 0.00 0.10 0.00 63 1011.3
20180220061617 68 153 22.0 31.0 0.00 0.10 0.00 63 1011.3
20180220061524 68 169 20.0 31.0 0.00 0.10 0.00 63 1011.4
20180220061432 68 187 16.0 30.0 0.00 0.10 0.00 63 1011.3
20180220061319 68 196 13.0 31.0 0.00 0.10 0.00 63 1011.4
20180220061227 68 180 14.0 31.0 0.00 0.10 0.00 63 1011.5
20180220061116 68 223 14.0 31.0 0.00 0.10 0.00 63 1011.2
20180220061028 68 229 14.0 31.0 0.00 0.10 0.00 63 1011.3
20180220060917 68 165 15.0 31.0 0.00 0.10 0.00 63 1011.4
20180220060824 68 203 17.0 31.0 0.00 0.10 0.00 63 1011.6
20180220060731 68 210 19.0 31.0 0.00 0.10 0.00 63 1011.4
20180220060618 68 239 19.0 32.0 0.00 0.10 0.00 63 1011.4
20180220060531 68 211 18.0 32.0 0.00 0.10 0.00 63 1011.3
20180220060418 68 196 13.0 32.0 0.00 0.10 0.00 63 1011.3
20180220060325 68 203 13.0 32.0 0.00 0.10 0.00 63 1011.4
20180220060233 68 239 18.0 32.0 0.00 0.10 0.00 63 1011.3
20180220060121 68 171 20.0 32.0 0.00 0.10 0.00 63 1011.6
20180220060039 68 254 18.0 33.0 0.00 0.10 0.00 63 1011.5
20180220055917 68 222 17.0 32.0 0.00 0.10 0.00 63 1011.4
20180220055824 68 184 18.0 32.0 0.00 0.10 0.10 63 1011.4
20180220055731 68 161 17.0 30.0 0.00 0.10 0.10 64 1011.4
20180220055620 68 228 16.0 30.0 0.00 0.10 0.10 64 1011.4
20180220055529 68 204 17.0 36.0 0.00 0.10 0.10 64 1011.4
20180220055419 68 148 18.0 36.0 0.00 0.10 0.10 64 1011.6
20180220055328 68 229 18.0 36.0 0.00 0.10 0.10 64 1011.6
20180220055234 68 198 16.0 36.0 0.00 0.10 0.10 64 1011.5
20180220055122 68 179 14.0 36.0 0.00 0.10 0.10 64 1011.5
20180220055033 68 213 14.0 36.0 0.00 0.10 0.10 64 1011.5
20180220054924 68 142 15.0 36.0 0.00 0.10 0.10 64 1011.4
20180220054831 68 220 20.0 36.0 0.00 0.10 0.10 64 1011.6
20180220054718 68 215 23.0 36.0 0.00 0.10 0.10 64 1011.4
20180220054628 68 199 18.0 30.0 0.00 0.10 0.10 64 1011.6
20180220054534 68 202 17.0 30.0 0.00 0.10 0.10 64 1011.4
20180220054422 68 212 14.0 30.0 0.00 0.10 0.10 65 1011.6
20180220054333 68 170 13.0 30.0 0.00 0.10 0.10 65 1011.6
20180220054220 68 124 13.0 30.0 0.00 0.10 0.10 65 1011.6
20180220054127 68 180 15.0 30.0 0.00 0.10 0.10 65 1011.7
20180220054034 68 198 17.0 30.0 0.00 0.10 0.10 65 1011.6
20180220053922 68 215 18.0 31.0 0.00 0.10 0.10 65 1011.6
20180220053833 68 196 14.0 31.0 0.00 0.10 0.10 65 1011.7
20180220053721 68 234 12.0 31.0 0.00 0.10 0.10 65 1011.6
20180220053628 68 218 13.0 31.0 0.00 0.10 0.10 65 1011.6
20180220053535 68 179 13.0 31.0 0.00 0.10 0.10 66 1011.7
20180220053422 68 215 12.0 31.0 0.00 0.10 0.10 66 1011.7
20180220053329 68 200 15.0 31.0 0.00 0.10 0.10 66 1011.6
20180220053220 68 178 17.0 31.0 0.00 0.10 0.10 66 1011.6
20180220053128 67 211 16.0 24.0 0.00 0.10 0.10 66 1011.4
20180220053035 67 211 15.0 24.0 0.00 0.10 0.10 66 1011.6
20180220052923 67 219 11.0 23.0 0.00 0.10 0.10 66 1011.7